| time (UTC) | temp F | wind direction | speed knots | gust knots | rain 1hr in | rain 24hr in | rain mn in | humidity % | barometer mb |
| 20260505153302 | 55 | 215 | 5.2 | 0.0 | 0.00 | 0.00 | 0.00 | 89 | 1008.5 |
| 20260505153202 | 55 | 217 | 7.0 | 0.0 | 0.00 | 0.00 | 0.00 | 89 | 1008.5 |
| 20260505153102 | 55 | 217 | 7.0 | 0.0 | 0.00 | 0.00 | 0.00 | 89 | 1008.6 |
| 20260505153002 | 55 | 217 | 7.0 | 0.0 | 0.00 | 0.00 | 0.00 | 89 | 1008.6 |
| 20260505152902 | 55 | 207 | 5.2 | 0.0 | 0.00 | 0.00 | 0.00 | 89 | 1008.6 |
| 20260505152801 | 55 | 207 | 5.2 | 0.0 | 0.00 | 0.00 | 0.00 | 89 | 1008.5 |
| 20260505152702 | 55 | 207 | 5.2 | 0.0 | 0.00 | 0.00 | 0.00 | 89 | 1008.6 |
| 20260505152601 | 55 | 222 | 5.2 | 0.0 | 0.00 | 0.00 | 0.00 | 89 | 1008.6 |
| 20260505152502 | 55 | 222 | 5.2 | 0.0 | 0.00 | 0.00 | 0.00 | 89 | 1008.6 |
| 20260505152402 | 55 | 222 | 5.2 | 0.0 | 0.00 | 0.00 | 0.00 | 89 | 1008.6 |
| 20260505152305 | 55 | 225 | 4.3 | 0.0 | 0.00 | 0.00 | 0.00 | 89 | 1008.5 |
| 20260505152202 | 55 | 225 | 4.3 | 0.0 | 0.00 | 0.00 | 0.00 | 89 | 1008.6 |
| 20260505152101 | 55 | 225 | 3.5 | 0.0 | 0.00 | 0.00 | 0.00 | 89 | 1008.6 |
| 20260505152002 | 55 | 225 | 3.5 | 0.0 | 0.00 | 0.00 | 0.00 | 89 | 1008.6 |
| 20260505151901 | 55 | 225 | 3.5 | 0.0 | 0.00 | 0.00 | 0.00 | 89 | 1008.5 |
| 20260505151802 | 55 | 225 | 3.5 | 0.0 | 0.00 | 0.00 | 0.00 | 89 | 1008.5 |
| 20260505151702 | 55 | 225 | 3.5 | 0.0 | 0.00 | 0.00 | 0.00 | 89 | 1008.6 |
| 20260505151602 | 55 | 222 | 5.2 | 0.0 | 0.00 | 0.00 | 0.00 | 89 | 1008.6 |
| 20260505151502 | 55 | 220 | 11.3 | 0.0 | 0.00 | 0.00 | 0.00 | 89 | 1008.6 |
| 20260505151402 | 55 | 217 | 4.3 | 0.0 | 0.00 | 0.00 | 0.00 | 89 | 1008.6 |
| 20260505151302 | 55 | 222 | 5.2 | 0.0 | 0.00 | 0.00 | 0.00 | 89 | 1008.6 |
| 20260505151201 | 55 | 222 | 5.2 | 0.0 | 0.00 | 0.00 | 0.00 | 89 | 1008.6 |
| 20260505151102 | 55 | 222 | 5.2 | 0.0 | 0.00 | 0.00 | 0.00 | 89 | 1008.6 |
| 20260505151001 | 55 | 222 | 5.2 | 0.0 | 0.00 | 0.00 | 0.00 | 89 | 1008.6 |
| 20260505150902 | 55 | 225 | 6.1 | 0.0 | 0.00 | 0.00 | 0.00 | 89 | 1008.6 |
| 20260505150801 | 55 | 225 | 6.1 | 0.0 | 0.00 | 0.00 | 0.00 | 89 | 1008.6 |
| 20260505150702 | 55 | 225 | 6.1 | 0.0 | 0.00 | 0.00 | 0.00 | 89 | 1008.6 |
| 20260505150602 | 55 | 215 | 5.2 | 0.0 | 0.00 | 0.00 | 0.00 | 89 | 1008.7 |
| 20260505150502 | 55 | 215 | 5.2 | 0.0 | 0.00 | 0.00 | 0.00 | 89 | 1008.7 |
| 20260505150402 | 55 | 215 | 5.2 | 0.0 | 0.00 | 0.00 | 0.00 | 89 | 1008.8 |
| 20260505150301 | 55 | 230 | 2.6 | 0.0 | 0.00 | 0.00 | 0.00 | 88 | 1008.8 |
| 20260505150202 | 55 | 230 | 2.6 | 0.0 | 0.00 | 0.00 | 0.00 | 88 | 1008.7 |
| 20260505140601 | 55 | 220 | 2.6 | 0.0 | 0.00 | 0.00 | 0.00 | 86 | 1009.2 |
| 20260505140502 | 55 | 220 | 2.6 | 0.0 | 0.00 | 0.00 | 0.00 | 86 | 1009.2 |
| 20260505140401 | 55 | 220 | 2.6 | 0.0 | 0.00 | 0.00 | 0.00 | 86 | 1009.2 |
| 20260505140302 | 55 | 220 | 2.6 | 0.0 | 0.00 | 0.00 | 0.00 | 86 | 1009.2 |
| 20260505140201 | 55 | 220 | 2.6 | 0.0 | 0.00 | 0.00 | 0.00 | 86 | 1009.2 |
| 20260505130301 | 58 | 220 | 3.5 | 0.0 | 0.00 | 0.00 | 0.00 | 80 | 1009.5 |
| 20260505130202 | 58 | 220 | 3.5 | 0.0 | 0.00 | 0.00 | 0.00 | 80 | 1009.4 |
| 20260505125002 | 59 | 215 | 6.1 | 0.0 | 0.00 | 0.00 | 0.00 | 80 | 1009.5 |
| 20260505124901 | 59 | 205 | 3.5 | 0.0 | 0.00 | 0.00 | 0.00 | 80 | 1009.5 |
| 20260505124802 | 59 | 205 | 3.5 | 0.0 | 0.00 | 0.00 | 0.00 | 80 | 1009.5 |
| 20260505124701 | 59 | 205 | 3.5 | 0.0 | 0.00 | 0.00 | 0.00 | 80 | 1009.5 |
| 20260505124602 | 59 | 220 | 6.1 | 0.0 | 0.00 | 0.00 | 0.00 | 79 | 1009.5 |
| 20260505124501 | 59 | 220 | 6.1 | 0.0 | 0.00 | 0.00 | 0.00 | 79 | 1009.5 |
| 20260505124402 | 59 | 227 | 4.3 | 0.0 | 0.00 | 0.00 | 0.00 | 79 | 1009.5 |
| 20260505124302 | 59 | 227 | 4.3 | 0.0 | 0.00 | 0.00 | 0.00 | 79 | 1009.5 |
| 20260505124201 | 59 | 227 | 4.3 | 0.0 | 0.00 | 0.00 | 0.00 | 79 | 1009.5 |
| 20260505124102 | 59 | 165 | 3.5 | 0.0 | 0.00 | 0.00 | 0.00 | 79 | 1009.6 |
| 20260505124001 | 59 | 165 | 3.5 | 0.0 | 0.00 | 0.00 | 0.00 | 79 | 1009.6 |
| 20260505123902 | 60 | 152 | 4.3 | 0.0 | 0.00 | 0.00 | 0.00 | 78 | 1009.5 |
| 20260505123801 | 60 | 152 | 4.3 | 0.0 | 0.00 | 0.00 | 0.00 | 78 | 1009.6 |
| 20260505123702 | 60 | 152 | 4.3 | 0.0 | 0.00 | 0.00 | 0.00 | 78 | 1009.6 |
| 20260505123602 | 60 | 130 | 3.5 | 0.0 | 0.00 | 0.00 | 0.00 | 77 | 1009.6 |
| 20260505123501 | 60 | 130 | 3.5 | 0.0 | 0.00 | 0.00 | 0.00 | 77 | 1009.6 |
| 20260505123402 | 61 | 140 | 5.2 | 0.0 | 0.00 | 0.00 | 0.00 | 76 | 1009.6 |
| 20260505123301 | 61 | 140 | 5.2 | 0.0 | 0.00 | 0.00 | 0.00 | 76 | 1009.6 |
| 20260505123202 | 61 | 140 | 5.2 | 0.0 | 0.00 | 0.00 | 0.00 | 76 | 1009.6 |
| 20260505123101 | 61 | 122 | 5.2 | 0.0 | 0.00 | 0.00 | 0.00 | 72 | 1009.6 |
| 20260505123002 | 61 | 122 | 5.2 | 0.0 | 0.00 | 0.00 | 0.00 | 72 | 1009.5 |
| 20260505122902 | 61 | 122 | 5.2 | 0.0 | 0.00 | 0.00 | 0.00 | 72 | 1009.5 |
| 20260505122802 | 61 | 85 | 0.0 | 0.0 | 0.00 | 0.00 | 0.00 | 72 | 1009.5 |
| 20260505122702 | 61 | 85 | 0.0 | 0.0 | 0.00 | 0.00 | 0.00 | 72 | 1009.6 |
| 20260505122601 | 62 | 52 | 0.0 | 0.0 | 0.00 | 0.00 | 0.00 | 72 | 1009.6 |
| 20260505122502 | 62 | 52 | 0.0 | 0.0 | 0.00 | 0.00 | 0.00 | 72 | 1009.5 |
| 20260505122401 | 62 | 10 | 0.0 | 0.0 | 0.00 | 0.00 | 0.00 | 71 | 1009.6 |
| 20260505122305 | 62 | 10 | 0.0 | 0.0 | 0.00 | 0.00 | 0.00 | 71 | 1009.6 |
| 20260505122201 | 62 | 10 | 0.0 | 0.0 | 0.00 | 0.00 | 0.00 | 71 | 1009.6 |
| 20260505122102 | 62 | 145 | 0.0 | 0.0 | 0.00 | 0.00 | 0.00 | 72 | 1009.6 |
| 20260505122002 | 62 | 145 | 0.0 | 0.0 | 0.00 | 0.00 | 0.00 | 72 | 1009.6 |
| 20260505121901 | 62 | 145 | 0.0 | 0.0 | 0.00 | 0.00 | 0.00 | 72 | 1009.6 |
| 20260505121802 | 62 | 145 | 0.0 | 0.0 | 0.00 | 0.00 | 0.00 | 72 | 1009.6 |
| 20260505121701 | 62 | 145 | 0.0 | 0.0 | 0.00 | 0.00 | 0.00 | 72 | 1009.6 |
| 20260505121602 | 62 | 145 | 0.0 | 0.0 | 0.00 | 0.00 | 0.00 | 72 | 1009.6 |
| 20260505121501 | 62 | 195 | 0.0 | 0.0 | 0.00 | 0.00 | 0.00 | 71 | 1009.6 |
| 20260505121402 | 62 | 195 | 0.0 | 0.0 | 0.00 | 0.00 | 0.00 | 71 | 1009.6 |
| 20260505121301 | 62 | 212 | 0.0 | 0.0 | 0.00 | 0.00 | 0.00 | 71 | 1009.6 |
| 20260505121202 | 62 | 212 | 0.0 | 0.0 | 0.00 | 0.00 | 0.00 | 71 | 1009.6 |
| 20260505121102 | 62 | 75 | 0.0 | 0.0 | 0.00 | 0.00 | 0.00 | 69 | 1009.6 |
| 20260505121002 | 62 | 75 | 0.0 | 0.0 | 0.00 | 0.00 | 0.00 | 69 | 1009.6 |
| 20260505120901 | 62 | 75 | 0.0 | 0.0 | 0.00 | 0.00 | 0.00 | 69 | 1009.6 |
| 20260505120802 | 62 | 75 | 0.0 | 0.0 | 0.00 | 0.00 | 0.00 | 69 | 1009.6 |
| 20260505120702 | 62 | 75 | 0.0 | 0.0 | 0.00 | 0.00 | 0.00 | 69 | 1009.6 |
| 20260505120602 | 62 | 75 | 0.0 | 0.0 | 0.00 | 0.00 | 0.00 | 69 | 1009.6 |
| 20260505120502 | 62 | 217 | 0.0 | 0.0 | 0.00 | 0.00 | 0.00 | 70 | 1009.6 |
| 20260505120401 | 62 | 217 | 0.0 | 0.0 | 0.00 | 0.00 | 0.00 | 70 | 1009.6 |
| 20260505120302 | 62 | 225 | 0.0 | 0.0 | 0.00 | 0.00 | 0.00 | 70 | 1009.6 |
| 20260505120201 | 62 | 225 | 0.0 | 0.0 | 0.00 | 0.00 | 0.00 | 70 | 1009.6 |
| 20260505120001 | 62 | 265 | 2.6 | 0.0 | 0.00 | 0.00 | 0.00 | 70 | 1009.6 |
| 20260505115902 | 62 | 265 | 2.6 | 0.0 | 0.00 | 0.00 | 0.00 | 70 | 1009.6 |
| 20260505115802 | 62 | 20 | 0.0 | 0.0 | 0.00 | 0.00 | 0.00 | 70 | 1009.7 |
| 20260505115702 | 62 | 20 | 0.0 | 0.0 | 0.00 | 0.00 | 0.00 | 70 | 1009.6 |
| 20260505115602 | 62 | 20 | 0.0 | 0.0 | 0.00 | 0.00 | 0.00 | 70 | 1009.6 |
| 20260505115501 | 62 | 20 | 0.0 | 0.0 | 0.00 | 0.00 | 0.00 | 70 | 1009.7 |
| 20260505115402 | 62 | 20 | 0.0 | 0.0 | 0.00 | 0.00 | 0.00 | 70 | 1009.7 |
| 20260505115304 | 62 | 12 | 0.0 | 0.0 | 0.00 | 0.00 | 0.00 | 70 | 1009.6 |
| 20260505115202 | 62 | 12 | 0.0 | 0.0 | 0.00 | 0.00 | 0.00 | 70 | 1009.7 |
| 20260505115102 | 62 | 12 | 0.0 | 0.0 | 0.00 | 0.00 | 0.00 | 70 | 1009.6 |
| 20260505115002 | 63 | 330 | 3.5 | 0.0 | 0.00 | 0.00 | 0.00 | 70 | 1009.7 |
| 20260505114902 | 63 | 330 | 3.5 | 0.0 | 0.00 | 0.00 | 0.00 | 70 | 1009.7 |
| 20260505114801 | 63 | 310 | 1.7 | 0.0 | 0.00 | 0.00 | 0.00 | 69 | 1009.7 |
| 20260505114702 | 63 | 310 | 1.7 | 0.0 | 0.00 | 0.00 | 0.00 | 69 | 1009.7 |
| 20260505114601 | 63 | 310 | 1.7 | 0.0 | 0.00 | 0.00 | 0.00 | 69 | 1009.7 |
| 20260505114502 | 64 | 260 | 2.6 | 0.0 | 0.00 | 0.00 | 0.00 | 69 | 1009.7 |
| 20260505114401 | 64 | 260 | 2.6 | 0.0 | 0.00 | 0.00 | 0.00 | 69 | 1009.7 |
| 20260505114302 | 64 | 260 | 2.6 | 0.0 | 0.00 | 0.00 | 0.00 | 69 | 1009.7 |
| 20260505114202 | 63 | 225 | 2.6 | 0.0 | 0.00 | 0.00 | 0.00 | 69 | 1009.7 |
| 20260505114102 | 63 | 225 | 2.6 | 0.0 | 0.00 | 0.00 | 0.00 | 69 | 1009.8 |
| 20260505114002 | 63 | 90 | 0.0 | 0.0 | 0.00 | 0.00 | 0.00 | 68 | 1009.8 |
| 20260505113901 | 63 | 90 | 0.0 | 0.0 | 0.00 | 0.00 | 0.00 | 68 | 1009.7 |
| 20260505113802 | 63 | 90 | 0.0 | 0.0 | 0.00 | 0.00 | 0.00 | 68 | 1009.7 |
| 20260505113701 | 63 | 90 | 0.0 | 0.0 | 0.00 | 0.00 | 0.00 | 68 | 1009.8 |
| 20260505113602 | 63 | 90 | 0.0 | 0.0 | 0.00 | 0.00 | 0.00 | 68 | 1009.8 |
| 20260505113502 | 63 | 105 | 0.0 | 0.0 | 0.00 | 0.00 | 0.00 | 69 | 1009.8 |
| 20260505113402 | 63 | 105 | 0.0 | 0.0 | 0.00 | 0.00 | 0.00 | 69 | 1009.8 |
| 20260505113302 | 63 | 105 | 0.0 | 0.0 | 0.00 | 0.00 | 0.00 | 69 | 1009.8 |
| 20260505113201 | 63 | 115 | 0.0 | 0.0 | 0.00 | 0.00 | 0.00 | 72 | 1009.8 |
| 20260505113102 | 63 | 115 | 0.0 | 0.0 | 0.00 | 0.00 | 0.00 | 72 | 1009.8 |
| 20260505113002 | 63 | 115 | 0.0 | 0.0 | 0.00 | 0.00 | 0.00 | 72 | 1009.8 |
| 20260505112902 | 63 | 115 | 0.0 | 0.0 | 0.00 | 0.00 | 0.00 | 72 | 1009.8 |
| 20260505112801 | 63 | 115 | 0.0 | 0.0 | 0.00 | 0.00 | 0.00 | 72 | 1009.8 |
| 20260505112702 | 63 | 15 | 3.5 | 0.0 | 0.00 | 0.00 | 0.00 | 72 | 1009.9 |
| 20260505112602 | 63 | 15 | 3.5 | 0.0 | 0.00 | 0.00 | 0.00 | 72 | 1009.8 |
| 20260505112501 | 63 | 15 | 3.5 | 0.0 | 0.00 | 0.00 | 0.00 | 72 | 1009.8 |
| 20260505112402 | 63 | 15 | 3.5 | 0.0 | 0.00 | 0.00 | 0.00 | 72 | 1009.8 |
| 20260505112301 | 63 | 15 | 3.5 | 0.0 | 0.00 | 0.00 | 0.00 | 72 | 1009.8 |
| 20260505112202 | 63 | 255 | 0.0 | 0.0 | 0.00 | 0.00 | 0.00 | 73 | 1009.8 |
| 20260505112101 | 63 | 255 | 0.0 | 0.0 | 0.00 | 0.00 | 0.00 | 73 | 1009.9 |
| 20260505112002 | 63 | 255 | 0.0 | 0.0 | 0.00 | 0.00 | 0.00 | 73 | 1009.9 |
| 20260505111901 | 63 | 235 | 0.0 | 0.0 | 0.00 | 0.00 | 0.00 | 72 | 1009.9 |
| 20260505111801 | 63 | 235 | 0.0 | 0.0 | 0.00 | 0.00 | 0.00 | 72 | 1009.9 |
| 20260505111702 | 63 | 255 | 0.0 | 0.0 | 0.00 | 0.00 | 0.00 | 72 | 1009.9 |
| 20260505111601 | 63 | 255 | 0.0 | 0.0 | 0.00 | 0.00 | 0.00 | 72 | 1009.9 |
| 20260505111502 | 62 | 250 | 2.6 | 0.0 | 0.00 | 0.00 | 0.00 | 75 | 1009.9 |
| 20260505111401 | 62 | 250 | 2.6 | 0.0 | 0.00 | 0.00 | 0.00 | 75 | 1009.9 |
| 20260505111302 | 62 | 250 | 2.6 | 0.0 | 0.00 | 0.00 | 0.00 | 75 | 1010.0 |
| 20260505111202 | 62 | 230 | 2.6 | 0.0 | 0.00 | 0.00 | 0.00 | 75 | 1009.9 |
| 20260505111102 | 62 | 230 | 2.6 | 0.0 | 0.00 | 0.00 | 0.00 | 75 | 1010.0 |
| 20260505111002 | 62 | 230 | 2.6 | 0.0 | 0.00 | 0.00 | 0.00 | 75 | 1010.0 |
| 20260505110902 | 61 | 187 | 0.0 | 0.0 | 0.00 | 0.00 | 0.00 | 73 | 1010.0 |
| 20260505110802 | 61 | 187 | 0.0 | 0.0 | 0.00 | 0.00 | 0.00 | 73 | 1010.1 |
| 20260505110701 | 61 | 160 | 0.0 | 0.0 | 0.00 | 0.00 | 0.00 | 74 | 1010.1 |
| 20260505110602 | 61 | 160 | 0.0 | 0.0 | 0.00 | 0.00 | 0.00 | 74 | 1010.1 |
| 20260505110501 | 61 | 65 | 4.3 | 0.0 | 0.00 | 0.00 | 0.00 | 77 | 1010.1 |
| 20260505110402 | 61 | 65 | 4.3 | 0.0 | 0.00 | 0.00 | 0.00 | 77 | 1010.1 |
| 20260505110302 | 61 | 65 | 4.3 | 0.0 | 0.00 | 0.00 | 0.00 | 77 | 1010.1 |
| 20260505110202 | 61 | 65 | 4.3 | 0.0 | 0.00 | 0.00 | 0.00 | 77 | 1010.1 |
| 20260505102201 | 58 | 147 | 0.0 | 0.0 | 0.00 | 0.00 | 0.00 | 78 | 1010.5 |
| 20260505102102 | 58 | 147 | 0.0 | 0.0 | 0.00 | 0.00 | 0.00 | 78 | 1010.5 |
| 20260505102001 | 58 | 147 | 0.0 | 0.0 | 0.00 | 0.00 | 0.00 | 78 | 1010.5 |
| 20260505101902 | 58 | 120 | 0.0 | 0.0 | 0.00 | 0.00 | 0.00 | 78 | 1010.5 |
| 20260505101801 | 58 | 120 | 0.0 | 0.0 | 0.00 | 0.00 | 0.00 | 78 | 1010.4 |
| 20260505101702 | 58 | 82 | 0.0 | 0.0 | 0.00 | 0.00 | 0.00 | 78 | 1010.4 |
| 20260505101602 | 58 | 82 | 0.0 | 0.0 | 0.00 | 0.00 | 0.00 | 78 | 1010.4 |
| 20260505101501 | 58 | 82 | 0.0 | 0.0 | 0.00 | 0.00 | 0.00 | 78 | 1010.5 |
| 20260505101402 | 58 | 80 | 3.5 | 0.0 | 0.00 | 0.00 | 0.00 | 77 | 1010.5 |
| 20260505101301 | 58 | 80 | 3.5 | 0.0 | 0.00 | 0.00 | 0.00 | 77 | 1010.5 |
| 20260505101202 | 58 | 80 | 3.5 | 0.0 | 0.00 | 0.00 | 0.00 | 77 | 1010.5 |
| 20260505101102 | 58 | 72 | 4.3 | 0.0 | 0.00 | 0.00 | 0.00 | 77 | 1010.5 |
| 20260505101001 | 58 | 72 | 4.3 | 0.0 | 0.00 | 0.00 | 0.00 | 77 | 1010.5 |
| 20260505100902 | 59 | 85 | 0.0 | 0.0 | 0.00 | 0.00 | 0.00 | 77 | 1010.5 |
| 20260505100801 | 59 | 85 | 0.0 | 0.0 | 0.00 | 0.00 | 0.00 | 77 | 1010.5 |
| 20260505100702 | 59 | 85 | 0.0 | 0.0 | 0.00 | 0.00 | 0.00 | 77 | 1010.5 |
| 20260505100601 | 59 | 95 | 0.0 | 0.0 | 0.00 | 0.00 | 0.00 | 78 | 1010.5 |
| 20260505100502 | 59 | 95 | 0.0 | 0.0 | 0.00 | 0.00 | 0.00 | 78 | 1010.5 |
| 20260505100402 | 59 | 95 | 0.0 | 0.0 | 0.00 | 0.00 | 0.00 | 78 | 1010.5 |
| 20260505100301 | 59 | 147 | 0.0 | 0.0 | 0.00 | 0.00 | 0.00 | 78 | 1010.4 |
| 20260505100202 | 59 | 147 | 0.0 | 0.0 | 0.00 | 0.00 | 0.00 | 78 | 1010.5 |
| 20260505100101 | 59 | 147 | 0.0 | 0.0 | 0.00 | 0.00 | 0.00 | 78 | 1010.5 |
| 20260505100002 | 59 | 107 | 0.0 | 0.0 | 0.00 | 0.00 | 0.00 | 76 | 1010.5 |
| 20260505095901 | 59 | 107 | 0.0 | 0.0 | 0.00 | 0.00 | 0.00 | 76 | 1010.5 |
| 20260505095802 | 59 | 107 | 0.0 | 0.0 | 0.00 | 0.00 | 0.00 | 76 | 1010.4 |
| 20260505095702 | 59 | 107 | 0.0 | 0.0 | 0.00 | 0.00 | 0.00 | 76 | 1010.5 |
| 20260505095602 | 59 | 107 | 0.0 | 0.0 | 0.00 | 0.00 | 0.00 | 76 | 1010.5 |
| 20260505095502 | 59 | 107 | 0.0 | 0.0 | 0.00 | 0.00 | 0.00 | 76 | 1010.5 |
| 20260505095401 | 59 | 107 | 0.0 | 0.0 | 0.00 | 0.00 | 0.00 | 76 | 1010.5 |
| 20260505095304 | 59 | 90 | 0.0 | 0.0 | 0.00 | 0.00 | 0.00 | 77 | 1010.4 |
| 20260505095201 | 59 | 90 | 0.0 | 0.0 | 0.00 | 0.00 | 0.00 | 77 | 1010.4 |
| 20260505095102 | 59 | 85 | 0.0 | 0.0 | 0.00 | 0.00 | 0.00 | 76 | 1010.5 |
| 20260505095001 | 59 | 85 | 0.0 | 0.0 | 0.00 | 0.00 | 0.00 | 76 | 1010.4 |
| 20260505094901 | 59 | 107 | 0.0 | 0.0 | 0.00 | 0.00 | 0.00 | 77 | 1010.4 |
| 20260505094802 | 59 | 107 | 0.0 | 0.0 | 0.00 | 0.00 | 0.00 | 77 | 1010.4 |
| 20260505094701 | 59 | 107 | 0.0 | 0.0 | 0.00 | 0.00 | 0.00 | 77 | 1010.4 |
| 20260505094602 | 59 | 140 | 0.0 | 0.0 | 0.00 | 0.00 | 0.00 | 76 | 1010.4 |
| 20260505094501 | 59 | 140 | 0.0 | 0.0 | 0.00 | 0.00 | 0.00 | 76 | 1010.5 |
| 20260505094402 | 59 | 190 | 0.0 | 0.0 | 0.00 | 0.00 | 0.00 | 76 | 1010.4 |
| 20260505094302 | 59 | 190 | 0.0 | 0.0 | 0.00 | 0.00 | 0.00 | 76 | 1010.5 |
| 20260505094201 | 59 | 190 | 0.0 | 0.0 | 0.00 | 0.00 | 0.00 | 76 | 1010.5 |
| 20260505094102 | 59 | 12 | 0.0 | 0.0 | 0.00 | 0.00 | 0.00 | 76 | 1010.5 |
| 20260505094001 | 59 | 12 | 0.0 | 0.0 | 0.00 | 0.00 | 0.00 | 76 | 1010.5 |
| 20260505093902 | 59 | 12 | 0.0 | 0.0 | 0.00 | 0.00 | 0.00 | 76 | 1010.5 |
| 20260505093801 | 59 | 12 | 0.0 | 0.0 | 0.00 | 0.00 | 0.00 | 76 | 1010.5 |
| 20260505093702 | 59 | 12 | 0.0 | 0.0 | 0.00 | 0.00 | 0.00 | 76 | 1010.5 |
| 20260505093501 | 59 | 325 | 0.0 | 0.0 | 0.00 | 0.00 | 0.00 | 77 | 1010.5 |
| 20260505093402 | 59 | 250 | 0.0 | 0.0 | 0.00 | 0.00 | 0.00 | 78 | 1010.5 |
| 20260505093301 | 59 | 250 | 0.0 | 0.0 | 0.00 | 0.00 | 0.00 | 78 | 1010.5 |
| 20260505093202 | 59 | 250 | 0.0 | 0.0 | 0.00 | 0.00 | 0.00 | 78 | 1010.5 |
| 20260505093101 | 58 | 175 | 0.0 | 0.0 | 0.00 | 0.00 | 0.00 | 78 | 1010.5 |
| 20260505093002 | 58 | 175 | 0.0 | 0.0 | 0.00 | 0.00 | 0.00 | 78 | 1010.5 |
| 20260505092902 | 58 | 175 | 0.0 | 0.0 | 0.00 | 0.00 | 0.00 | 78 | 1010.5 |
| 20260505092802 | 58 | 217 | 0.0 | 0.0 | 0.00 | 0.00 | 0.00 | 77 | 1010.5 |
| 20260505092702 | 58 | 217 | 0.0 | 0.0 | 0.00 | 0.00 | 0.00 | 77 | 1010.5 |
| 20260505092601 | 58 | 217 | 0.0 | 0.0 | 0.00 | 0.00 | 0.00 | 78 | 1010.5 |
| 20260505092502 | 58 | 217 | 0.0 | 0.0 | 0.00 | 0.00 | 0.00 | 78 | 1010.5 |
| 20260505092401 | 58 | 217 | 0.0 | 0.0 | 0.00 | 0.00 | 0.00 | 78 | 1010.5 |
| 20260505092304 | 58 | 217 | 0.0 | 0.0 | 0.00 | 0.00 | 0.00 | 78 | 1010.5 |
| 20260505092201 | 58 | 217 | 0.0 | 0.0 | 0.00 | 0.00 | 0.00 | 78 | 1010.5 |
| 20260505092102 | 58 | 210 | 0.0 | 0.0 | 0.00 | 0.00 | 0.00 | 78 | 1010.5 |
| 20260505092002 | 58 | 210 | 0.0 | 0.0 | 0.00 | 0.00 | 0.00 | 78 | 1010.5 |
| 20260505091901 | 58 | 247 | 0.0 | 0.0 | 0.00 | 0.00 | 0.00 | 78 | 1010.5 |
| 20260505091802 | 58 | 247 | 0.0 | 0.0 | 0.00 | 0.00 | 0.00 | 78 | 1010.5 |
| 20260505091701 | 58 | 247 | 0.0 | 0.0 | 0.00 | 0.00 | 0.00 | 78 | 1010.5 |
| 20260505091602 | 58 | 247 | 0.0 | 0.0 | 0.00 | 0.00 | 0.00 | 78 | 1010.5 |
| 20260505091502 | 58 | 247 | 0.0 | 0.0 | 0.00 | 0.00 | 0.00 | 78 | 1010.5 |
| 20260505091402 | 58 | 247 | 0.0 | 0.0 | 0.00 | 0.00 | 0.00 | 78 | 1010.5 |
| 20260505091301 | 58 | 247 | 0.0 | 0.0 | 0.00 | 0.00 | 0.00 | 78 | 1010.5 |
| 20260505091202 | 58 | 217 | 0.0 | 0.0 | 0.00 | 0.00 | 0.00 | 78 | 1010.5 |
| 20260505091101 | 58 | 217 | 0.0 | 0.0 | 0.00 | 0.00 | 0.00 | 78 | 1010.5 |
| 20260505091002 | 58 | 217 | 0.0 | 0.0 | 0.00 | 0.00 | 0.00 | 78 | 1010.5 |
| 20260505090902 | 58 | 250 | 0.0 | 0.0 | 0.00 | 0.00 | 0.00 | 79 | 1010.5 |
| 20260505090802 | 58 | 250 | 0.0 | 0.0 | 0.00 | 0.00 | 0.00 | 79 | 1010.5 |
| 20260505090701 | 58 | 250 | 0.0 | 0.0 | 0.00 | 0.00 | 0.00 | 79 | 1010.5 |
| 20260505090602 | 58 | 250 | 0.0 | 0.0 | 0.00 | 0.00 | 0.00 | 79 | 1010.5 |
| 20260505090502 | 58 | 250 | 0.0 | 0.0 | 0.00 | 0.00 | 0.00 | 79 | 1010.5 |
| 20260505090402 | 58 | 250 | 0.0 | 0.0 | 0.00 | 0.00 | 0.00 | 79 | 1010.5 |
| 20260505090302 | 58 | 250 | 0.0 | 0.0 | 0.00 | 0.00 | 0.00 | 79 | 1010.5 |
| 20260505090201 | 58 | 225 | 0.0 | 0.0 | 0.00 | 0.00 | 0.00 | 80 | 1010.5 |
| 20260505090001 | 58 | 225 | 0.0 | 0.0 | 0.00 | 0.00 | 0.00 | 80 | 1010.5 |
| 20260505085902 | 58 | 217 | 0.0 | 0.0 | 0.00 | 0.00 | 0.00 | 79 | 1010.6 |
| 20260505085801 | 58 | 217 | 0.0 | 0.0 | 0.00 | 0.00 | 0.00 | 79 | 1010.6 |
| 20260505085703 | 58 | 217 | 0.0 | 0.0 | 0.00 | 0.00 | 0.00 | 79 | 1010.6 |
| 20260505085601 | 58 | 220 | 0.0 | 0.0 | 0.00 | 0.00 | 0.00 | 80 | 1010.6 |
| 20260505085502 | 58 | 220 | 0.0 | 0.0 | 0.00 | 0.00 | 0.00 | 80 | 1010.6 |
| 20260505085401 | 58 | 220 | 0.0 | 0.0 | 0.00 | 0.00 | 0.00 | 80 | 1010.6 |
| 20260505085304 | 58 | 220 | 0.0 | 0.0 | 0.00 | 0.00 | 0.00 | 80 | 1010.6 |
| 20260505085201 | 58 | 220 | 0.0 | 0.0 | 0.00 | 0.00 | 0.00 | 80 | 1010.6 |
| 20260505085102 | 58 | 220 | 0.0 | 0.0 | 0.00 | 0.00 | 0.00 | 80 | 1010.6 |
| 20260505085002 | 58 | 220 | 0.0 | 0.0 | 0.00 | 0.00 | 0.00 | 80 | 1010.6 |
| 20260505084901 | 58 | 220 | 0.0 | 0.0 | 0.00 | 0.00 | 0.00 | 80 | 1010.6 |
| 20260505084802 | 58 | 220 | 0.0 | 0.0 | 0.00 | 0.00 | 0.00 | 80 | 1010.6 |
| 20260505084701 | 58 | 220 | 0.0 | 0.0 | 0.00 | 0.00 | 0.00 | 80 | 1010.6 |
| 20260505084602 | 58 | 220 | 0.0 | 0.0 | 0.00 | 0.00 | 0.00 | 80 | 1010.7 |
| 20260505084501 | 58 | 220 | 0.0 | 0.0 | 0.00 | 0.00 | 0.00 | 80 | 1010.6 |
| 20260505084402 | 58 | 220 | 0.0 | 0.0 | 0.00 | 0.00 | 0.00 | 80 | 1010.7 |
| 20260505084302 | 58 | 220 | 0.0 | 0.0 | 0.00 | 0.00 | 0.00 | 81 | 1010.6 |
| 20260505084202 | 58 | 220 | 0.0 | 0.0 | 0.00 | 0.00 | 0.00 | 81 | 1010.6 |
| 20260505084102 | 57 | 217 | 0.0 | 0.0 | 0.00 | 0.00 | 0.00 | 81 | 1010.7 |
| 20260505084003 | 57 | 217 | 0.0 | 0.0 | 0.00 | 0.00 | 0.00 | 81 | 1010.7 |
| 20260505083902 | 57 | 225 | 0.0 | 0.0 | 0.00 | 0.00 | 0.00 | 82 | 1010.7 |
| 20260505083802 | 57 | 225 | 0.0 | 0.0 | 0.00 | 0.00 | 0.00 | 82 | 1010.7 |
| 20260505083701 | 57 | 225 | 0.0 | 0.0 | 0.00 | 0.00 | 0.00 | 82 | 1010.7 |
| 20260505083602 | 57 | 225 | 0.0 | 0.0 | 0.00 | 0.00 | 0.00 | 82 | 1010.7 |
| 20260505083501 | 57 | 225 | 0.0 | 0.0 | 0.00 | 0.00 | 0.00 | 82 | 1010.7 |
| 20260505083402 | 57 | 225 | 0.0 | 0.0 | 0.00 | 0.00 | 0.00 | 82 | 1010.7 |
| 20260505083301 | 57 | 105 | 0.0 | 0.0 | 0.00 | 0.00 | 0.00 | 82 | 1010.7 |
| 20260505083202 | 57 | 105 | 0.0 | 0.0 | 0.00 | 0.00 | 0.00 | 82 | 1010.7 |
| 20260505083101 | 57 | 105 | 0.0 | 0.0 | 0.00 | 0.00 | 0.00 | 82 | 1010.7 |
| 20260505083002 | 57 | 27 | 0.0 | 0.0 | 0.00 | 0.00 | 0.00 | 82 | 1010.7 |
| 20260505082901 | 57 | 27 | 0.0 | 0.0 | 0.00 | 0.00 | 0.00 | 82 | 1010.7 |
| 20260505082502 | 56 | 122 | 0.0 | 0.0 | 0.00 | 0.00 | 0.00 | 84 | 1010.7 |
| 20260505082402 | 56 | 122 | 0.0 | 0.0 | 0.00 | 0.00 | 0.00 | 84 | 1010.7 |
| 20260505082304 | 56 | 235 | 0.0 | 0.0 | 0.00 | 0.00 | 0.00 | 85 | 1010.7 |
| 20260505082202 | 56 | 235 | 0.0 | 0.0 | 0.00 | 0.00 | 0.00 | 85 | 1010.7 |
| 20260505082101 | 56 | 235 | 0.0 | 0.0 | 0.00 | 0.00 | 0.00 | 85 | 1010.7 |
| 20260505082002 | 56 | 210 | 0.0 | 0.0 | 0.00 | 0.00 | 0.00 | 85 | 1010.7 |
| 20260505081902 | 56 | 210 | 0.0 | 0.0 | 0.00 | 0.00 | 0.00 | 85 | 1010.7 |
| 20260505081802 | 56 | 295 | 0.0 | 0.0 | 0.00 | 0.00 | 0.00 | 85 | 1010.7 |
| 20260505081702 | 56 | 295 | 0.0 | 0.0 | 0.00 | 0.00 | 0.00 | 85 | 1010.7 |
| 20260505081601 | 56 | 295 | 0.0 | 0.0 | 0.00 | 0.00 | 0.00 | 85 | 1010.6 |
| 20260505081502 | 55 | 255 | 0.0 | 0.0 | 0.00 | 0.00 | 0.00 | 85 | 1010.6 |
| 20260505081401 | 55 | 255 | 0.0 | 0.0 | 0.00 | 0.00 | 0.00 | 85 | 1010.6 |
| 20260505081302 | 55 | 180 | 0.0 | 0.0 | 0.00 | 0.00 | 0.00 | 86 | 1010.6 |
| 20260505081201 | 55 | 180 | 0.0 | 0.0 | 0.00 | 0.00 | 0.00 | 86 | 1010.6 |
| 20260505081102 | 55 | 180 | 0.0 | 0.0 | 0.00 | 0.00 | 0.00 | 86 | 1010.6 |
| 20260505081002 | 55 | 180 | 0.0 | 0.0 | 0.00 | 0.00 | 0.00 | 86 | 1010.7 |
| 20260505080902 | 55 | 180 | 0.0 | 0.0 | 0.00 | 0.00 | 0.00 | 86 | 1010.6 |
| 20260505080802 | 55 | 232 | 0.0 | 0.0 | 0.00 | 0.00 | 0.00 | 87 | 1010.6 |
| 20260505080701 | 55 | 232 | 0.0 | 0.0 | 0.00 | 0.00 | 0.00 | 87 | 1010.6 |
| 20260505080602 | 55 | 232 | 0.0 | 0.0 | 0.00 | 0.00 | 0.00 | 87 | 1010.6 |
| 20260505080501 | 55 | 232 | 0.0 | 0.0 | 0.00 | 0.00 | 0.00 | 87 | 1010.6 |
| 20260505080402 | 55 | 232 | 0.0 | 0.0 | 0.00 | 0.00 | 0.00 | 87 | 1010.6 |
| 20260505080302 | 55 | 227 | 0.0 | 0.0 | 0.00 | 0.00 | 0.00 | 87 | 1010.7 |
| 20260505080202 | 55 | 227 | 0.0 | 0.0 | 0.00 | 0.00 | 0.00 | 87 | 1010.6 |
| 20260505080002 | 54 | 192 | 0.0 | 0.0 | 0.00 | 0.00 | 0.00 | 88 | 1010.6 |
| 20260505075902 | 54 | 192 | 0.0 | 0.0 | 0.00 | 0.00 | 0.00 | 88 | 1010.6 |
| 20260505075801 | 54 | 192 | 0.0 | 0.0 | 0.00 | 0.00 | 0.00 | 88 | 1010.6 |
| 20260505075702 | 54 | 192 | 0.0 | 0.0 | 0.00 | 0.00 | 0.00 | 88 | 1010.6 |
| 20260505075601 | 54 | 192 | 0.0 | 0.0 | 0.00 | 0.00 | 0.00 | 88 | 1010.7 |
| 20260505075502 | 54 | 210 | 0.0 | 0.0 | 0.00 | 0.00 | 0.00 | 90 | 1010.6 |
| 20260505075401 | 54 | 210 | 0.0 | 0.0 | 0.00 | 0.00 | 0.00 | 90 | 1010.6 |
| 20260505075304 | 54 | 210 | 0.0 | 0.0 | 0.00 | 0.00 | 0.00 | 90 | 1010.6 |
| 20260505075201 | 54 | 210 | 0.0 | 0.0 | 0.00 | 0.00 | 0.00 | 90 | 1010.7 |
| 20260505075102 | 54 | 210 | 0.0 | 0.0 | 0.00 | 0.00 | 0.00 | 90 | 1010.6 |
| 20260505075001 | 54 | 212 | 0.0 | 0.0 | 0.00 | 0.00 | 0.00 | 90 | 1010.7 |
| 20260505074902 | 54 | 212 | 0.0 | 0.0 | 0.00 | 0.00 | 0.00 | 90 | 1010.7 |
| 20260505074802 | 54 | 212 | 0.0 | 0.0 | 0.00 | 0.00 | 0.00 | 90 | 1010.7 |
| 20260505074702 | 54 | 190 | 0.0 | 0.0 | 0.00 | 0.00 | 0.00 | 90 | 1010.7 |
| 20260505074602 | 54 | 190 | 0.0 | 0.0 | 0.00 | 0.00 | 0.00 | 90 | 1010.7 |
| 20260505074501 | 54 | 165 | 0.0 | 0.0 | 0.00 | 0.00 | 0.00 | 91 | 1010.7 |
| 20260505074402 | 54 | 165 | 0.0 | 0.0 | 0.00 | 0.00 | 0.00 | 91 | 1010.7 |
| 20260505074301 | 54 | 185 | 0.0 | 0.0 | 0.00 | 0.00 | 0.00 | 91 | 1010.7 |
| 20260505074202 | 54 | 185 | 0.0 | 0.0 | 0.00 | 0.00 | 0.00 | 91 | 1010.7 |
| 20260505074101 | 54 | 185 | 0.0 | 0.0 | 0.00 | 0.00 | 0.00 | 91 | 1010.8 |
| 20260505074002 | 54 | 185 | 0.0 | 0.0 | 0.00 | 0.00 | 0.00 | 91 | 1010.7 |
| 20260505073901 | 54 | 185 | 0.0 | 0.0 | 0.00 | 0.00 | 0.00 | 91 | 1010.8 |
| 20260505073802 | 53 | 200 | 0.0 | 0.0 | 0.00 | 0.00 | 0.00 | 92 | 1010.8 |
| 20260505073702 | 53 | 200 | 0.0 | 0.0 | 0.00 | 0.00 | 0.00 | 92 | 1010.7 |
| 20260505073601 | 53 | 200 | 0.0 | 0.0 | 0.00 | 0.00 | 0.00 | 92 | 1010.7 |
| 20260505073502 | 53 | 200 | 0.0 | 0.0 | 0.00 | 0.00 | 0.00 | 92 | 1010.7 |
| 20260505073401 | 53 | 200 | 0.0 | 0.0 | 0.00 | 0.00 | 0.00 | 92 | 1010.7 |
| 20260505073302 | 53 | 200 | 0.0 | 0.0 | 0.00 | 0.00 | 0.00 | 92 | 1010.7 |
| 20260505073201 | 53 | 200 | 0.0 | 0.0 | 0.00 | 0.00 | 0.00 | 92 | 1010.7 |
| 20260505073102 | 53 | 200 | 0.0 | 0.0 | 0.00 | 0.00 | 0.00 | 92 | 1010.7 |
| 20260505073002 | 53 | 200 | 0.0 | 0.0 | 0.00 | 0.00 | 0.00 | 92 | 1010.8 |
| 20260505072902 | 53 | 200 | 0.0 | 0.0 | 0.00 | 0.00 | 0.00 | 92 | 1010.7 |
| 20260505072802 | 53 | 200 | 0.0 | 0.0 | 0.00 | 0.00 | 0.00 | 92 | 1010.8 |
| 20260505072701 | 53 | 200 | 0.0 | 0.0 | 0.00 | 0.00 | 0.00 | 92 | 1010.8 |
| 20260505072602 | 53 | 200 | 0.0 | 0.0 | 0.00 | 0.00 | 0.00 | 92 | 1010.7 |
| 20260505072501 | 53 | 200 | 0.0 | 0.0 | 0.00 | 0.00 | 0.00 | 92 | 1010.7 |
| 20260505072402 | 53 | 225 | 0.0 | 0.0 | 0.00 | 0.00 | 0.00 | 92 | 1010.7 |
| 20260505072302 | 53 | 225 | 0.0 | 0.0 | 0.00 | 0.00 | 0.00 | 92 | 1010.7 |
| 20260505072202 | 53 | 225 | 0.0 | 0.0 | 0.00 | 0.00 | 0.00 | 92 | 1010.8 |
| 20260505072102 | 53 | 225 | 0.0 | 0.0 | 0.00 | 0.00 | 0.00 | 92 | 1010.8 |
| 20260505072001 | 53 | 225 | 0.0 | 0.0 | 0.00 | 0.00 | 0.00 | 92 | 1010.7 |
| 20260505071902 | 53 | 225 | 0.0 | 0.0 | 0.00 | 0.00 | 0.00 | 92 | 1010.7 |
| 20260505071801 | 53 | 225 | 0.0 | 0.0 | 0.00 | 0.00 | 0.00 | 92 | 1010.7 |
| 20260505071702 | 53 | 220 | 0.0 | 0.0 | 0.00 | 0.00 | 0.00 | 92 | 1010.7 |
| 20260505071601 | 53 | 220 | 0.0 | 0.0 | 0.00 | 0.00 | 0.00 | 92 | 1010.7 |
| 20260505071502 | 53 | 220 | 0.0 | 0.0 | 0.00 | 0.00 | 0.00 | 92 | 1010.7 |
| 20260505071402 | 53 | 220 | 0.0 | 0.0 | 0.00 | 0.00 | 0.00 | 92 | 1010.7 |
| 20260505071302 | 53 | 220 | 0.0 | 0.0 | 0.00 | 0.00 | 0.00 | 92 | 1010.7 |
| 20260505071202 | 53 | 230 | 0.0 | 0.0 | 0.00 | 0.00 | 0.00 | 92 | 1010.7 |
| 20260505071101 | 53 | 230 | 0.0 | 0.0 | 0.00 | 0.00 | 0.00 | 92 | 1010.7 |
| 20260505071002 | 53 | 230 | 0.0 | 0.0 | 0.00 | 0.00 | 0.00 | 92 | 1010.8 |
| 20260505070901 | 53 | 230 | 0.0 | 0.0 | 0.00 | 0.00 | 0.00 | 92 | 1010.8 |
| 20260505070802 | 53 | 230 | 0.0 | 0.0 | 0.00 | 0.00 | 0.00 | 92 | 1010.8 |
| 20260505070701 | 53 | 230 | 0.0 | 0.0 | 0.00 | 0.00 | 0.00 | 92 | 1010.8 |
| 20260505070602 | 53 | 230 | 0.0 | 0.0 | 0.00 | 0.00 | 0.00 | 92 | 1010.8 |
| 20260505070501 | 53 | 230 | 0.0 | 0.0 | 0.00 | 0.00 | 0.00 | 92 | 1010.8 |
| 20260505070402 | 53 | 220 | 0.0 | 0.0 | 0.00 | 0.00 | 0.00 | 92 | 1010.8 |
| 20260505070302 | 53 | 220 | 0.0 | 0.0 | 0.00 | 0.00 | 0.00 | 92 | 1010.8 |
| 20260505070202 | 53 | 220 | 0.0 | 0.0 | 0.00 | 0.00 | 0.00 | 92 | 1010.8 |
| 20260505070001 | 53 | 207 | 0.0 | 0.0 | 0.00 | 0.00 | 0.00 | 92 | 1010.8 |
| 20260505065902 | 53 | 207 | 0.0 | 0.0 | 0.00 | 0.00 | 0.00 | 92 | 1010.8 |
| 20260505065801 | 53 | 207 | 0.0 | 0.0 | 0.00 | 0.00 | 0.00 | 92 | 1010.8 |
| 20260505065702 | 53 | 205 | 0.0 | 0.0 | 0.00 | 0.00 | 0.00 | 92 | 1010.8 |
| 20260505065602 | 53 | 205 | 0.0 | 0.0 | 0.00 | 0.00 | 0.00 | 92 | 1010.8 |
| 20260505065501 | 53 | 205 | 0.0 | 0.0 | 0.00 | 0.00 | 0.00 | 92 | 1010.8 |
| 20260505065402 | 53 | 25 | 0.0 | 0.0 | 0.00 | 0.00 | 0.00 | 92 | 1010.7 |
| 20260505065303 | 53 | 25 | 0.0 | 0.0 | 0.00 | 0.00 | 0.00 | 92 | 1010.8 |
| 20260505065202 | 53 | 25 | 0.0 | 0.0 | 0.00 | 0.00 | 0.00 | 92 | 1010.8 |
| 20260505065101 | 53 | 25 | 0.0 | 0.0 | 0.00 | 0.00 | 0.00 | 92 | 1010.8 |
| 20260505065002 | 53 | 25 | 0.0 | 0.0 | 0.00 | 0.00 | 0.00 | 92 | 1010.8 |
| 20260505064901 | 53 | 25 | 0.0 | 0.0 | 0.00 | 0.00 | 0.00 | 92 | 1010.8 |
| 20260505064802 | 53 | 25 | 0.0 | 0.0 | 0.00 | 0.00 | 0.00 | 92 | 1010.9 |
| 20260505064702 | 52 | 25 | 0.0 | 0.0 | 0.00 | 0.00 | 0.00 | 92 | 1010.8 |
| 20260505064601 | 52 | 25 | 0.0 | 0.0 | 0.00 | 0.00 | 0.00 | 92 | 1010.8 |
| 20260505064502 | 52 | 30 | 0.0 | 0.0 | 0.00 | 0.00 | 0.00 | 92 | 1010.8 |
| 20260505064401 | 52 | 30 | 0.0 | 0.0 | 0.00 | 0.00 | 0.00 | 92 | 1010.9 |
| 20260505064302 | 52 | 30 | 0.0 | 0.0 | 0.00 | 0.00 | 0.00 | 92 | 1010.9 |
| 20260505064201 | 52 | 345 | 0.0 | 0.0 | 0.00 | 0.00 | 0.00 | 92 | 1010.9 |
| 20260505064102 | 52 | 345 | 0.0 | 0.0 | 0.00 | 0.00 | 0.00 | 92 | 1010.9 |
| 20260505064002 | 52 | 345 | 0.0 | 0.0 | 0.00 | 0.00 | 0.00 | 92 | 1010.9 |
| 20260505063902 | 52 | 345 | 0.0 | 0.0 | 0.00 | 0.00 | 0.00 | 92 | 1010.9 |
| 20260505063802 | 52 | 345 | 0.0 | 0.0 | 0.00 | 0.00 | 0.00 | 92 | 1011.0 |
| 20260505063701 | 52 | 345 | 0.0 | 0.0 | 0.00 | 0.00 | 0.00 | 92 | 1011.0 |
| 20260505063602 | 52 | 345 | 0.0 | 0.0 | 0.00 | 0.00 | 0.00 | 92 | 1011.0 |
| 20260505063501 | 52 | 345 | 0.0 | 0.0 | 0.00 | 0.00 | 0.00 | 92 | 1011.0 |
| 20260505063402 | 52 | 345 | 0.0 | 0.0 | 0.00 | 0.00 | 0.00 | 92 | 1011.0 |
| 20260505063302 | 52 | 345 | 0.0 | 0.0 | 0.00 | 0.00 | 0.00 | 92 | 1011.0 |
| 20260505063201 | 52 | 345 | 0.0 | 0.0 | 0.00 | 0.00 | 0.00 | 92 | 1011.0 |
| 20260505063102 | 52 | 345 | 0.0 | 0.0 | 0.00 | 0.00 | 0.00 | 92 | 1011.2 |
| 20260505063001 | 52 | 345 | 0.0 | 0.0 | 0.00 | 0.00 | 0.00 | 92 | 1011.2 |
| 20260505062902 | 52 | 345 | 0.0 | 0.0 | 0.00 | 0.00 | 0.00 | 92 | 1011.0 |
| 20260505062801 | 52 | 345 | 0.0 | 0.0 | 0.00 | 0.00 | 0.00 | 92 | 1011.2 |
| 20260505062702 | 52 | 345 | 0.0 | 0.0 | 0.00 | 0.00 | 0.00 | 92 | 1011.2 |
| 20260505062601 | 52 | 345 | 0.0 | 0.0 | 0.00 | 0.00 | 0.00 | 92 | 1011.0 |
| 20260505062502 | 52 | 345 | 0.0 | 0.0 | 0.00 | 0.00 | 0.00 | 92 | 1011.0 |
| 20260505062402 | 52 | 345 | 0.0 | 0.0 | 0.00 | 0.00 | 0.00 | 92 | 1011.2 |
| 20260505062301 | 52 | 345 | 0.0 | 0.0 | 0.00 | 0.00 | 0.00 | 92 | 1011.2 |
| 20260505062202 | 52 | 345 | 0.0 | 0.0 | 0.00 | 0.00 | 0.00 | 92 | 1011.2 |
| 20260505062101 | 52 | 345 | 0.0 | 0.0 | 0.00 | 0.00 | 0.00 | 92 | 1011.2 |
| 20260505062002 | 52 | 345 | 0.0 | 0.0 | 0.00 | 0.00 | 0.00 | 92 | 1011.2 |
| 20260505061602 | 52 | 345 | 0.0 | 0.0 | 0.00 | 0.00 | 0.00 | 92 | 1011.2 |
| 20260505061502 | 52 | 345 | 0.0 | 0.0 | 0.00 | 0.00 | 0.00 | 92 | 1011.0 |
| 20260505061402 | 52 | 345 | 0.0 | 0.0 | 0.00 | 0.00 | 0.00 | 92 | 1011.2 |
| 20260505061301 | 52 | 345 | 0.0 | 0.0 | 0.00 | 0.00 | 0.00 | 92 | 1011.2 |
| 20260505061202 | 52 | 357 | 0.0 | 0.0 | 0.00 | 0.00 | 0.00 | 92 | 1011.2 |
| 20260505061101 | 52 | 357 | 0.0 | 0.0 | 0.00 | 0.00 | 0.00 | 92 | 1011.2 |
| 20260505061002 | 52 | 357 | 0.0 | 0.0 | 0.00 | 0.00 | 0.00 | 92 | 1011.2 |
| 20260505060901 | 52 | 150 | 0.0 | 0.0 | 0.00 | 0.00 | 0.00 | 92 | 1011.3 |
| 20260505060802 | 52 | 150 | 0.0 | 0.0 | 0.00 | 0.00 | 0.00 | 92 | 1011.2 |
| 20260505060702 | 52 | 150 | 0.0 | 0.0 | 0.00 | 0.00 | 0.00 | 92 | 1011.2 |
| 20260505060602 | 52 | 150 | 0.0 | 0.0 | 0.00 | 0.00 | 0.00 | 92 | 1011.3 |
| 20260505060502 | 52 | 150 | 0.0 | 0.0 | 0.00 | 0.00 | 0.00 | 92 | 1011.2 |
| 20260505060401 | 52 | 150 | 0.0 | 0.0 | 0.00 | 0.00 | 0.00 | 92 | 1011.3 |
| 20260505060302 | 52 | 150 | 0.0 | 0.0 | 0.00 | 0.00 | 0.00 | 92 | 1011.3 |
| 20260505060201 | 51 | 165 | 0.0 | 0.0 | 0.00 | 0.00 | 0.00 | 92 | 1011.2 |
| 20260505060001 | 51 | 165 | 0.0 | 0.0 | 0.00 | 0.00 | 0.00 | 92 | 1011.2 |
| 20260505055902 | 51 | 165 | 0.0 | 0.0 | 0.00 | 0.00 | 0.00 | 92 | 1011.2 |
| 20260505055802 | 51 | 165 | 0.0 | 0.0 | 0.00 | 0.00 | 0.00 | 92 | 1011.2 |
| 20260505055701 | 51 | 165 | 0.0 | 0.0 | 0.00 | 0.00 | 0.00 | 92 | 1011.2 |
| 20260505055602 | 51 | 142 | 0.0 | 0.0 | 0.00 | 0.00 | 0.00 | 92 | 1011.0 |
| 20260505055501 | 51 | 142 | 0.0 | 0.0 | 0.00 | 0.00 | 0.00 | 92 | 1011.2 |
| 20260505055402 | 51 | 142 | 0.0 | 0.0 | 0.00 | 0.00 | 0.00 | 92 | 1011.2 |
| 20260505055303 | 51 | 150 | 0.0 | 0.0 | 0.00 | 0.00 | 0.00 | 92 | 1011.2 |
| 20260505055202 | 51 | 150 | 0.0 | 0.0 | 0.00 | 0.00 | 0.00 | 92 | 1011.2 |
| 20260505055101 | 51 | 175 | 0.0 | 0.0 | 0.00 | 0.00 | 0.00 | 92 | 1011.0 |
| 20260505055001 | 51 | 175 | 0.0 | 0.0 | 0.00 | 0.00 | 0.00 | 92 | 1011.2 |
| 20260505054902 | 51 | 187 | 0.0 | 0.0 | 0.00 | 0.00 | 0.00 | 92 | 1011.2 |
| 20260505054801 | 51 | 187 | 0.0 | 0.0 | 0.00 | 0.00 | 0.00 | 92 | 1011.0 |
| 20260505054702 | 51 | 187 | 0.0 | 0.0 | 0.00 | 0.00 | 0.00 | 92 | 1011.0 |
| 20260505054601 | 51 | 222 | 0.0 | 0.0 | 0.00 | 0.00 | 0.00 | 92 | 1011.0 |
| 20260505054502 | 51 | 222 | 0.0 | 0.0 | 0.00 | 0.00 | 0.00 | 92 | 1011.0 |
| 20260505054401 | 51 | 222 | 0.0 | 0.0 | 0.00 | 0.00 | 0.00 | 92 | 1010.9 |
| 20260505054302 | 51 | 232 | 0.0 | 0.0 | 0.00 | 0.00 | 0.00 | 92 | 1011.0 |
| 20260505054201 | 51 | 232 | 0.0 | 0.0 | 0.00 | 0.00 | 0.00 | 92 | 1011.0 |
| 20260505054101 | 51 | 232 | 0.0 | 0.0 | 0.00 | 0.00 | 0.00 | 92 | 1011.0 |
| 20260505054002 | 51 | 232 | 0.0 | 0.0 | 0.00 | 0.00 | 0.00 | 92 | 1011.0 |
| 20260505053901 | 51 | 222 | 0.0 | 0.0 | 0.00 | 0.00 | 0.00 | 92 | 1011.0 |
| 20260505053802 | 51 | 222 | 0.0 | 0.0 | 0.00 | 0.00 | 0.00 | 92 | 1010.9 |
| 20260505053702 | 51 | 222 | 0.0 | 0.0 | 0.00 | 0.00 | 0.00 | 92 | 1011.0 |
| 20260505053602 | 51 | 220 | 0.0 | 0.0 | 0.00 | 0.00 | 0.00 | 92 | 1011.0 |
| 20260505053502 | 51 | 220 | 0.0 | 0.0 | 0.00 | 0.00 | 0.00 | 92 | 1011.0 |
| 20260505053401 | 51 | 220 | 0.0 | 0.0 | 0.00 | 0.00 | 0.00 | 92 | 1011.0 |
| 20260505053302 | 51 | 217 | 0.0 | 0.0 | 0.00 | 0.00 | 0.00 | 92 | 1011.0 |
| 20260505053201 | 51 | 217 | 0.0 | 0.0 | 0.00 | 0.00 | 0.00 | 92 | 1011.0 |
| 20260505053102 | 51 | 217 | 0.0 | 0.0 | 0.00 | 0.00 | 0.00 | 92 | 1011.2 |
| 20260505053001 | 51 | 217 | 0.0 | 0.0 | 0.00 | 0.00 | 0.00 | 92 | 1011.0 |
| 20260505052902 | 51 | 217 | 0.0 | 0.0 | 0.00 | 0.00 | 0.00 | 92 | 1011.2 |
| 20260505052802 | 51 | 215 | 0.0 | 0.0 | 0.00 | 0.00 | 0.00 | 92 | 1011.2 |
| 20260505052701 | 51 | 215 | 0.0 | 0.0 | 0.00 | 0.00 | 0.00 | 92 | 1011.0 |
| 20260505052602 | 51 | 215 | 0.0 | 0.0 | 0.00 | 0.00 | 0.00 | 92 | 1011.0 |
| 20260505052501 | 51 | 215 | 0.0 | 0.0 | 0.00 | 0.00 | 0.00 | 92 | 1011.2 |
| 20260505052402 | 51 | 215 | 0.0 | 0.0 | 0.00 | 0.00 | 0.00 | 92 | 1011.2 |
| 20260505052301 | 51 | 215 | 0.0 | 0.0 | 0.00 | 0.00 | 0.00 | 92 | 1011.2 |
| 20260505052202 | 51 | 215 | 0.0 | 0.0 | 0.00 | 0.00 | 0.00 | 92 | 1011.2 |
| 20260505052101 | 51 | 215 | 0.0 | 0.0 | 0.00 | 0.00 | 0.00 | 92 | 1011.2 |
| 20260505052002 | 51 | 217 | 0.0 | 0.0 | 0.00 | 0.00 | 0.00 | 92 | 1011.0 |
| 20260505051902 | 51 | 217 | 0.0 | 0.0 | 0.00 | 0.00 | 0.00 | 92 | 1011.2 |
| 20260505051801 | 51 | 217 | 0.0 | 0.0 | 0.00 | 0.00 | 0.00 | 92 | 1011.0 |
| 20260505051702 | 51 | 217 | 0.0 | 0.0 | 0.00 | 0.00 | 0.00 | 92 | 1011.0 |
| 20260505051601 | 51 | 217 | 0.0 | 0.0 | 0.00 | 0.00 | 0.00 | 92 | 1011.0 |
| 20260505051502 | 51 | 167 | 0.0 | 0.0 | 0.00 | 0.00 | 0.00 | 92 | 1011.0 |
| 20260505051401 | 51 | 167 | 0.0 | 0.0 | 0.00 | 0.00 | 0.00 | 92 | 1011.0 |
| 20260505051302 | 51 | 167 | 0.0 | 0.0 | 0.00 | 0.00 | 0.00 | 92 | 1011.0 |
| 20260505051202 | 51 | 167 | 0.0 | 0.0 | 0.00 | 0.00 | 0.00 | 92 | 1011.0 |
| 20260505051102 | 51 | 167 | 0.0 | 0.0 | 0.00 | 0.00 | 0.00 | 92 | 1011.0 |
| 20260505051002 | 51 | 160 | 0.0 | 0.0 | 0.00 | 0.00 | 0.00 | 92 | 1011.0 |
| 20260505050901 | 51 | 160 | 0.0 | 0.0 | 0.00 | 0.00 | 0.00 | 92 | 1011.0 |
| 20260505050802 | 51 | 170 | 0.0 | 0.0 | 0.00 | 0.00 | 0.00 | 92 | 1011.2 |
| 20260505050701 | 51 | 170 | 0.0 | 0.0 | 0.00 | 0.00 | 0.00 | 92 | 1011.0 |
| 20260505050602 | 51 | 170 | 0.0 | 0.0 | 0.00 | 0.00 | 0.00 | 92 | 1011.2 |
| 20260505050501 | 51 | 172 | 0.0 | 0.0 | 0.00 | 0.00 | 0.00 | 92 | 1011.2 |
| 20260505050402 | 51 | 172 | 0.0 | 0.0 | 0.00 | 0.00 | 0.00 | 92 | 1011.0 |
| 20260505050302 | 51 | 172 | 0.0 | 0.0 | 0.00 | 0.00 | 0.00 | 92 | 1011.0 |
| 20260505050202 | 51 | 172 | 0.0 | 0.0 | 0.00 | 0.00 | 0.00 | 92 | 1011.0 |
| 20260505041702 | 50 | 95 | 0.0 | 0.0 | 0.00 | 0.00 | 0.00 | 92 | 1011.3 |
| 20260505041601 | 50 | 95 | 0.0 | 0.0 | 0.00 | 0.00 | 0.00 | 92 | 1011.3 |
| 20260505041502 | 50 | 95 | 0.0 | 0.0 | 0.00 | 0.00 | 0.00 | 92 | 1011.3 |
| 20260505041401 | 50 | 95 | 0.0 | 0.0 | 0.00 | 0.00 | 0.00 | 92 | 1011.3 |
| 20260505041302 | 50 | 95 | 0.0 | 0.0 | 0.00 | 0.00 | 0.00 | 92 | 1011.4 |
| 20260505041201 | 50 | 95 | 0.0 | 0.0 | 0.00 | 0.00 | 0.00 | 92 | 1011.3 |
| 20260505041102 | 50 | 87 | 0.0 | 0.0 | 0.00 | 0.00 | 0.00 | 92 | 1011.3 |
| 20260505041002 | 50 | 87 | 0.0 | 0.0 | 0.00 | 0.00 | 0.00 | 92 | 1011.3 |
| 20260505040902 | 50 | 82 | 0.0 | 0.0 | 0.00 | 0.00 | 0.00 | 92 | 1011.4 |
| 20260505040801 | 50 | 82 | 0.0 | 0.0 | 0.00 | 0.00 | 0.00 | 92 | 1011.3 |
| 20260505040701 | 50 | 82 | 0.0 | 0.0 | 0.00 | 0.00 | 0.00 | 92 | 1011.4 |
| 20260505040602 | 50 | 82 | 0.0 | 0.0 | 0.00 | 0.00 | 0.00 | 92 | 1011.3 |
| 20260505040501 | 50 | 82 | 0.0 | 0.0 | 0.00 | 0.00 | 0.00 | 92 | 1011.3 |
| 20260505040402 | 50 | 82 | 0.0 | 0.0 | 0.00 | 0.00 | 0.00 | 92 | 1011.3 |
| 20260505040301 | 50 | 82 | 0.0 | 0.0 | 0.00 | 0.00 | 0.00 | 92 | 1011.3 |
| 20260505040202 | 50 | 82 | 0.0 | 0.0 | 0.00 | 0.00 | 0.00 | 92 | 1011.3 |
| 20260505040001 | 50 | 82 | 0.0 | 0.0 | 0.00 | 0.00 | 0.00 | 92 | 1011.3 |
| 20260505035902 | 50 | 82 | 0.0 | 0.0 | 0.00 | 0.00 | 0.00 | 92 | 1011.3 |
| 20260505035801 | 50 | 82 | 0.0 | 0.0 | 0.00 | 0.00 | 0.00 | 92 | 1011.3 |
| 20260505035702 | 50 | 82 | 0.0 | 0.0 | 0.00 | 0.00 | 0.00 | 92 | 1011.3 |
| 20260505035601 | 50 | 82 | 0.0 | 0.0 | 0.00 | 0.00 | 0.00 | 92 | 1011.3 |
| 20260505035502 | 50 | 82 | 0.0 | 0.0 | 0.00 | 0.00 | 0.00 | 92 | 1011.3 |
| 20260505035402 | 50 | 82 | 0.0 | 0.0 | 0.00 | 0.00 | 0.00 | 92 | 1011.3 |
| 20260505035301 | 50 | 82 | 0.0 | 0.0 | 0.00 | 0.00 | 0.00 | 92 | 1011.3 |
| 20260505035202 | 50 | 82 | 0.0 | 0.0 | 0.00 | 0.00 | 0.00 | 92 | 1011.3 |
| 20260505035101 | 50 | 82 | 0.0 | 0.0 | 0.00 | 0.00 | 0.00 | 92 | 1011.3 |
| 20260505035002 | 50 | 82 | 0.0 | 0.0 | 0.00 | 0.00 | 0.00 | 92 | 1011.2 |
| 20260505034901 | 50 | 82 | 0.0 | 0.0 | 0.00 | 0.00 | 0.00 | 92 | 1011.3 |
| 20260505034802 | 50 | 82 | 0.0 | 0.0 | 0.00 | 0.00 | 0.00 | 92 | 1011.3 |
| 20260505034701 | 50 | 82 | 0.0 | 0.0 | 0.00 | 0.00 | 0.00 | 92 | 1011.2 |
| 20260505034602 | 50 | 82 | 0.0 | 0.0 | 0.00 | 0.00 | 0.00 | 92 | 1011.2 |
| 20260505034501 | 50 | 82 | 0.0 | 0.0 | 0.00 | 0.00 | 0.00 | 92 | 1011.3 |
| 20260505034402 | 50 | 82 | 0.0 | 0.0 | 0.00 | 0.00 | 0.00 | 92 | 1011.2 |
| 20260505034302 | 50 | 82 | 0.0 | 0.0 | 0.00 | 0.00 | 0.00 | 92 | 1011.2 |
| 20260505034202 | 50 | 82 | 0.0 | 0.0 | 0.00 | 0.00 | 0.00 | 92 | 1011.2 |
| 20260505034102 | 50 | 82 | 0.0 | 0.0 | 0.00 | 0.00 | 0.00 | 92 | 1011.2 |
| 20260505034001 | 50 | 82 | 0.0 | 0.0 | 0.00 | 0.00 | 0.00 | 92 | 1011.2 |
| 20260505033902 | 50 | 82 | 0.0 | 0.0 | 0.00 | 0.00 | 0.00 | 92 | 1011.2 |
| 20260505033801 | 50 | 82 | 0.0 | 0.0 | 0.00 | 0.00 | 0.00 | 92 | 1011.2 |
| 20260505033702 | 50 | 82 | 0.0 | 0.0 | 0.00 | 0.00 | 0.00 | 92 | 1011.3 |
| 20260505033601 | 50 | 82 | 0.0 | 0.0 | 0.00 | 0.00 | 0.00 | 92 | 1011.3 |
| 20260505033502 | 50 | 82 | 0.0 | 0.0 | 0.00 | 0.00 | 0.00 | 92 | 1011.3 |
| 20260505033401 | 50 | 82 | 0.0 | 0.0 | 0.00 | 0.00 | 0.00 | 92 | 1011.3 |
| 20260505033302 | 50 | 82 | 0.0 | 0.0 | 0.00 | 0.00 | 0.00 | 92 | 1011.3 |
| 20260505033202 | 50 | 82 | 0.0 | 0.0 | 0.00 | 0.00 | 0.00 | 92 | 1011.3 |
| 20260505033101 | 50 | 82 | 0.0 | 0.0 | 0.00 | 0.00 | 0.00 | 92 | 1011.3 |
| 20260505033002 | 50 | 82 | 0.0 | 0.0 | 0.00 | 0.00 | 0.00 | 92 | 1011.4 |
| 20260505032901 | 51 | 82 | 0.0 | 0.0 | 0.00 | 0.00 | 0.00 | 92 | 1011.3 |
| 20260505032802 | 51 | 82 | 0.0 | 0.0 | 0.00 | 0.00 | 0.00 | 92 | 1011.4 |
| 20260505032701 | 51 | 82 | 0.0 | 0.0 | 0.00 | 0.00 | 0.00 | 92 | 1011.4 |
| 20260505032602 | 51 | 82 | 0.0 | 0.0 | 0.00 | 0.00 | 0.00 | 92 | 1011.4 |
| 20260505032502 | 51 | 82 | 0.0 | 0.0 | 0.00 | 0.00 | 0.00 | 92 | 1011.4 |
| 20260505032401 | 51 | 82 | 0.0 | 0.0 | 0.00 | 0.00 | 0.00 | 92 | 1011.4 |
| 20260505032304 | 51 | 82 | 0.0 | 0.0 | 0.00 | 0.00 | 0.00 | 92 | 1011.4 |
| 20260505032201 | 51 | 82 | 0.0 | 0.0 | 0.00 | 0.00 | 0.00 | 92 | 1011.4 |
| 20260505032102 | 51 | 82 | 0.0 | 0.0 | 0.00 | 0.00 | 0.00 | 92 | 1011.4 |
| 20260505032001 | 51 | 82 | 0.0 | 0.0 | 0.00 | 0.00 | 0.00 | 92 | 1011.4 |
| 20260505031902 | 51 | 82 | 0.0 | 0.0 | 0.00 | 0.00 | 0.00 | 92 | 1011.5 |
| 20260505031802 | 51 | 82 | 0.0 | 0.0 | 0.00 | 0.00 | 0.00 | 92 | 1011.5 |
| 20260505031701 | 51 | 82 | 0.0 | 0.0 | 0.00 | 0.00 | 0.00 | 92 | 1011.5 |
| 20260505031602 | 51 | 82 | 0.0 | 0.0 | 0.00 | 0.00 | 0.00 | 92 | 1011.4 |
| 20260505031501 | 51 | 82 | 0.0 | 0.0 | 0.00 | 0.00 | 0.00 | 92 | 1011.4 |
| 20260505031402 | 51 | 82 | 0.0 | 0.0 | 0.00 | 0.00 | 0.00 | 92 | 1011.5 |
| 20260505031301 | 51 | 82 | 0.0 | 0.0 | 0.00 | 0.00 | 0.00 | 92 | 1011.5 |
| 20260505031202 | 51 | 82 | 0.0 | 0.0 | 0.00 | 0.00 | 0.00 | 92 | 1011.5 |
| 20260505031102 | 51 | 82 | 0.0 | 0.0 | 0.00 | 0.00 | 0.00 | 92 | 1011.5 |
| 20260505031001 | 51 | 82 | 0.0 | 0.0 | 0.00 | 0.00 | 0.00 | 92 | 1011.4 |
| 20260505030902 | 51 | 82 | 0.0 | 0.0 | 0.00 | 0.00 | 0.00 | 92 | 1011.5 |
| 20260505030801 | 51 | 82 | 0.0 | 0.0 | 0.00 | 0.00 | 0.00 | 92 | 1011.5 |
| 20260505030702 | 51 | 82 | 0.0 | 0.0 | 0.00 | 0.00 | 0.00 | 92 | 1011.5 |
| 20260505030601 | 51 | 82 | 0.0 | 0.0 | 0.00 | 0.00 | 0.00 | 92 | 1011.6 |
| 20260505030502 | 51 | 82 | 0.0 | 0.0 | 0.00 | 0.00 | 0.00 | 92 | 1011.6 |
| 20260505030402 | 51 | 82 | 0.0 | 0.0 | 0.00 | 0.00 | 0.00 | 92 | 1011.6 |
| 20260505030302 | 51 | 82 | 0.0 | 0.0 | 0.00 | 0.00 | 0.00 | 92 | 1011.6 |
| 20260505030202 | 51 | 82 | 0.0 | 0.0 | 0.00 | 0.00 | 0.00 | 92 | 1011.6 |
| 20260505030002 | 51 | 82 | 0.0 | 0.0 | 0.00 | 0.00 | 0.00 | 92 | 1011.6 |
| 20260505025901 | 51 | 82 | 0.0 | 0.0 | 0.00 | 0.00 | 0.00 | 92 | 1011.6 |
| 20260505025802 | 51 | 82 | 0.0 | 0.0 | 0.00 | 0.00 | 0.00 | 92 | 1011.6 |
| 20260505025701 | 51 | 82 | 0.0 | 0.0 | 0.00 | 0.00 | 0.00 | 92 | 1011.6 |
| 20260505025602 | 51 | 82 | 0.0 | 0.0 | 0.00 | 0.00 | 0.00 | 92 | 1011.6 |
| 20260505025502 | 51 | 82 | 0.0 | 0.0 | 0.00 | 0.00 | 0.00 | 92 | 1011.6 |
| 20260505025401 | 51 | 82 | 0.0 | 0.0 | 0.00 | 0.00 | 0.00 | 92 | 1011.6 |
| 20260505025304 | 51 | 82 | 0.0 | 0.0 | 0.00 | 0.00 | 0.00 | 92 | 1011.6 |
| 20260505025201 | 51 | 82 | 0.0 | 0.0 | 0.00 | 0.00 | 0.00 | 92 | 1011.6 |
| 20260505025102 | 51 | 82 | 0.0 | 0.0 | 0.00 | 0.00 | 0.00 | 92 | 1011.6 |
| 20260505025002 | 51 | 82 | 0.0 | 0.0 | 0.00 | 0.00 | 0.00 | 92 | 1011.6 |
| 20260505024902 | 51 | 82 | 0.0 | 0.0 | 0.00 | 0.00 | 0.00 | 92 | 1011.6 |
| 20260505024802 | 51 | 82 | 0.0 | 0.0 | 0.00 | 0.00 | 0.00 | 92 | 1011.6 |
| 20260505024702 | 51 | 82 | 0.0 | 0.0 | 0.00 | 0.00 | 0.00 | 92 | 1011.6 |
| 20260505024602 | 51 | 82 | 0.0 | 0.0 | 0.00 | 0.00 | 0.00 | 92 | 1011.6 |
| 20260505024501 | 51 | 82 | 0.0 | 0.0 | 0.00 | 0.00 | 0.00 | 92 | 1011.6 |
| 20260505024402 | 51 | 82 | 0.0 | 0.0 | 0.00 | 0.00 | 0.00 | 92 | 1011.6 |
| 20260505024301 | 51 | 82 | 0.0 | 0.0 | 0.00 | 0.00 | 0.00 | 92 | 1011.6 |
| 20260505024202 | 51 | 82 | 0.0 | 0.0 | 0.00 | 0.00 | 0.00 | 92 | 1011.7 |
| 20260505024102 | 51 | 82 | 0.0 | 0.0 | 0.00 | 0.00 | 0.00 | 92 | 1011.6 |
| 20260505024001 | 51 | 82 | 0.0 | 0.0 | 0.00 | 0.00 | 0.00 | 92 | 1011.6 |
| 20260505023902 | 51 | 82 | 0.0 | 0.0 | 0.00 | 0.00 | 0.00 | 92 | 1011.7 |
| 20260505023801 | 51 | 82 | 0.0 | 0.0 | 0.00 | 0.00 | 0.00 | 92 | 1011.6 |
| 20260505023702 | 51 | 82 | 0.0 | 0.0 | 0.00 | 0.00 | 0.00 | 92 | 1011.7 |
| 20260505023601 | 51 | 82 | 0.0 | 0.0 | 0.00 | 0.00 | 0.00 | 92 | 1011.7 |
| 20260505023502 | 51 | 82 | 0.0 | 0.0 | 0.00 | 0.00 | 0.00 | 92 | 1011.7 |
| 20260505023402 | 51 | 82 | 0.0 | 0.0 | 0.00 | 0.00 | 0.00 | 92 | 1011.7 |
| 20260505023302 | 51 | 82 | 0.0 | 0.0 | 0.00 | 0.00 | 0.00 | 92 | 1011.7 |
| 20260505023202 | 51 | 82 | 0.0 | 0.0 | 0.00 | 0.00 | 0.00 | 92 | 1011.7 |
| 20260505023101 | 51 | 82 | 0.0 | 0.0 | 0.00 | 0.00 | 0.00 | 92 | 1011.7 |
| 20260505023002 | 51 | 80 | 0.0 | 0.0 | 0.00 | 0.00 | 0.00 | 92 | 1011.8 |
| 20260505022901 | 51 | 80 | 0.0 | 0.0 | 0.00 | 0.00 | 0.00 | 92 | 1011.7 |
| 20260505022802 | 51 | 80 | 0.0 | 0.0 | 0.00 | 0.00 | 0.00 | 92 | 1011.8 |
| 20260505022701 | 51 | 80 | 0.0 | 0.0 | 0.00 | 0.00 | 0.00 | 92 | 1011.8 |
| 20260505022602 | 51 | 80 | 0.0 | 0.0 | 0.00 | 0.00 | 0.00 | 92 | 1011.8 |
| 20260505022502 | 51 | 80 | 0.0 | 0.0 | 0.00 | 0.00 | 0.00 | 92 | 1011.8 |
| 20260505022401 | 51 | 80 | 0.0 | 0.0 | 0.00 | 0.00 | 0.00 | 92 | 1011.7 |
| 20260505022304 | 51 | 80 | 0.0 | 0.0 | 0.00 | 0.00 | 0.00 | 92 | 1011.7 |
| 20260505022201 | 51 | 80 | 0.0 | 0.0 | 0.00 | 0.00 | 0.00 | 92 | 1011.8 |
| 20260505022102 | 51 | 80 | 0.0 | 0.0 | 0.00 | 0.00 | 0.00 | 92 | 1011.8 |
| 20260505022001 | 51 | 80 | 0.0 | 0.0 | 0.00 | 0.00 | 0.00 | 92 | 1011.8 |
| 20260505021902 | 51 | 80 | 0.0 | 0.0 | 0.00 | 0.00 | 0.00 | 92 | 1011.8 |
| 20260505021802 | 51 | 80 | 0.0 | 0.0 | 0.00 | 0.00 | 0.00 | 92 | 1011.8 |
| 20260505021702 | 51 | 80 | 0.0 | 0.0 | 0.00 | 0.00 | 0.00 | 92 | 1011.8 |
| 20260505021602 | 51 | 80 | 0.0 | 0.0 | 0.00 | 0.00 | 0.00 | 92 | 1011.8 |
| 20260505021501 | 51 | 80 | 0.0 | 0.0 | 0.00 | 0.00 | 0.00 | 92 | 1011.8 |
| 20260505021402 | 51 | 80 | 0.0 | 0.0 | 0.00 | 0.00 | 0.00 | 92 | 1011.8 |
| 20260505021301 | 51 | 80 | 0.0 | 0.0 | 0.00 | 0.00 | 0.00 | 92 | 1011.8 |
| 20260505021202 | 51 | 70 | 0.0 | 0.0 | 0.00 | 0.00 | 0.00 | 92 | 1011.8 |
| 20260505021102 | 51 | 70 | 0.0 | 0.0 | 0.00 | 0.00 | 0.00 | 92 | 1011.9 |
| 20260505021002 | 51 | 67 | 0.0 | 0.0 | 0.00 | 0.00 | 0.00 | 92 | 1011.8 |
| 20260505020801 | 51 | 65 | 0.0 | 0.0 | 0.00 | 0.00 | 0.00 | 92 | 1011.8 |
| 20260505020702 | 51 | 65 | 0.0 | 0.0 | 0.00 | 0.00 | 0.00 | 92 | 1011.8 |
| 20260505020601 | 51 | 65 | 0.0 | 0.0 | 0.00 | 0.00 | 0.00 | 92 | 1011.8 |
| 20260505020502 | 51 | 65 | 0.0 | 0.0 | 0.00 | 0.00 | 0.00 | 92 | 1011.8 |
| 20260505020401 | 51 | 65 | 0.0 | 0.0 | 0.00 | 0.00 | 0.00 | 92 | 1011.8 |
| 20260505020302 | 51 | 65 | 0.0 | 0.0 | 0.00 | 0.00 | 0.00 | 92 | 1011.9 |
| 20260505020202 | 51 | 65 | 0.0 | 0.0 | 0.00 | 0.00 | 0.00 | 92 | 1011.9 |
| 20260505020002 | 51 | 65 | 0.0 | 0.0 | 0.00 | 0.00 | 0.00 | 92 | 1011.9 |
| 20260505015901 | 51 | 65 | 0.0 | 0.0 | 0.00 | 0.00 | 0.00 | 92 | 1011.9 |
| 20260505015802 | 51 | 65 | 0.0 | 0.0 | 0.00 | 0.00 | 0.00 | 92 | 1011.9 |
| 20260505015701 | 51 | 50 | 0.0 | 0.0 | 0.00 | 0.00 | 0.00 | 92 | 1011.9 |
| 20260505015602 | 51 | 50 | 0.0 | 0.0 | 0.00 | 0.00 | 0.00 | 92 | 1011.9 |
| 20260505015502 | 51 | 45 | 0.0 | 0.0 | 0.00 | 0.00 | 0.00 | 92 | 1011.9 |
| 20260505015401 | 51 | 45 | 0.0 | 0.0 | 0.00 | 0.00 | 0.00 | 92 | 1011.9 |
| 20260505015303 | 51 | 52 | 0.0 | 0.0 | 0.00 | 0.00 | 0.00 | 92 | 1011.9 |
| 20260505015201 | 51 | 52 | 0.0 | 0.0 | 0.00 | 0.00 | 0.00 | 92 | 1011.9 |
| 20260505015102 | 51 | 52 | 0.0 | 0.0 | 0.00 | 0.00 | 0.00 | 92 | 1011.9 |
| 20260505015002 | 51 | 52 | 2.6 | 0.0 | 0.00 | 0.00 | 0.00 | 91 | 1011.9 |
| 20260505014901 | 51 | 52 | 2.6 | 0.0 | 0.00 | 0.00 | 0.00 | 91 | 1011.9 |
| 20260505014802 | 51 | 52 | 2.6 | 0.0 | 0.00 | 0.00 | 0.00 | 91 | 1011.9 |
| 20260505014701 | 51 | 47 | 2.6 | 0.0 | 0.00 | 0.00 | 0.00 | 91 | 1012.0 |
| 20260505014602 | 51 | 47 | 2.6 | 0.0 | 0.00 | 0.00 | 0.00 | 91 | 1011.9 |
| 20260505014502 | 51 | 60 | 0.0 | 0.0 | 0.00 | 0.00 | 0.00 | 91 | 1012.0 |
| 20260505014402 | 51 | 60 | 0.0 | 0.0 | 0.00 | 0.00 | 0.00 | 91 | 1011.9 |
| 20260505014302 | 51 | 60 | 0.0 | 0.0 | 0.00 | 0.00 | 0.00 | 91 | 1012.0 |
| 20260505014201 | 50 | 37 | 3.5 | 0.0 | 0.00 | 0.00 | 0.00 | 91 | 1012.0 |
| 20260505014102 | 50 | 37 | 3.5 | 0.0 | 0.00 | 0.00 | 0.00 | 91 | 1012.0 |
| 20260505014001 | 50 | 37 | 3.5 | 0.0 | 0.00 | 0.00 | 0.00 | 91 | 1012.0 |
| 20260505013902 | 50 | 37 | 3.5 | 0.0 | 0.00 | 0.00 | 0.00 | 91 | 1012.0 |
| 20260505013801 | 50 | 37 | 3.5 | 0.0 | 0.00 | 0.00 | 0.00 | 91 | 1012.0 |
| 20260505013702 | 50 | 57 | 0.0 | 0.0 | 0.00 | 0.00 | 0.00 | 91 | 1012.0 |
| 20260505013602 | 50 | 57 | 0.0 | 0.0 | 0.00 | 0.00 | 0.00 | 91 | 1011.9 |
| 20260505013501 | 50 | 57 | 0.0 | 0.0 | 0.00 | 0.00 | 0.00 | 91 | 1012.0 |
| 20260505013402 | 50 | 57 | 0.0 | 0.0 | 0.00 | 0.00 | 0.00 | 91 | 1012.0 |
| 20260505013301 | 50 | 57 | 0.0 | 0.0 | 0.00 | 0.00 | 0.00 | 91 | 1012.0 |
| 20260505013202 | 50 | 57 | 0.0 | 0.0 | 0.00 | 0.00 | 0.00 | 91 | 1012.0 |
| 20260505013102 | 50 | 57 | 0.0 | 0.0 | 0.00 | 0.00 | 0.00 | 91 | 1012.0 |
| 20260505012902 | 50 | 47 | 2.6 | 0.0 | 0.00 | 0.00 | 0.00 | 91 | 1012.0 |
| 20260505012801 | 50 | 47 | 2.6 | 0.0 | 0.00 | 0.00 | 0.00 | 91 | 1012.0 |
| 20260505012702 | 50 | 52 | 2.6 | 0.0 | 0.00 | 0.00 | 0.00 | 91 | 1012.1 |
| 20260505012601 | 50 | 52 | 2.6 | 0.0 | 0.00 | 0.00 | 0.00 | 91 | 1012.1 |
| 20260505012502 | 50 | 52 | 2.6 | 0.0 | 0.00 | 0.00 | 0.00 | 91 | 1012.0 |
| 20260505012402 | 51 | 50 | 3.5 | 0.0 | 0.00 | 0.00 | 0.00 | 91 | 1012.1 |
| 20260505012304 | 51 | 50 | 3.5 | 0.0 | 0.00 | 0.00 | 0.00 | 91 | 1012.1 |
| 20260505012202 | 51 | 160 | 0.0 | 0.0 | 0.00 | 0.00 | 0.00 | 91 | 1012.1 |
| 20260505012102 | 51 | 160 | 0.0 | 0.0 | 0.00 | 0.00 | 0.00 | 91 | 1012.1 |
| 20260505012002 | 51 | 160 | 0.0 | 0.0 | 0.00 | 0.00 | 0.00 | 91 | 1012.2 |
| 20260505011901 | 51 | 160 | 0.0 | 0.0 | 0.00 | 0.00 | 0.00 | 91 | 1012.2 |
| 20260505011802 | 51 | 160 | 0.0 | 0.0 | 0.00 | 0.00 | 0.00 | 91 | 1012.1 |
| 20260505011702 | 51 | 160 | 0.0 | 0.0 | 0.00 | 0.00 | 0.00 | 91 | 1012.1 |
| 20260505011602 | 51 | 160 | 0.0 | 0.0 | 0.00 | 0.00 | 0.00 | 91 | 1012.1 |
| 20260505011502 | 51 | 160 | 0.0 | 0.0 | 0.00 | 0.00 | 0.00 | 91 | 1012.1 |
| 20260505011401 | 51 | 160 | 0.0 | 0.0 | 0.00 | 0.00 | 0.00 | 91 | 1012.1 |
| 20260505011302 | 51 | 160 | 0.0 | 0.0 | 0.00 | 0.00 | 0.00 | 91 | 1012.1 |
| 20260505011201 | 51 | 160 | 0.0 | 0.0 | 0.00 | 0.00 | 0.00 | 91 | 1012.1 |
| 20260505011102 | 51 | 160 | 0.0 | 0.0 | 0.00 | 0.00 | 0.00 | 91 | 1012.1 |
| 20260505011001 | 51 | 160 | 0.0 | 0.0 | 0.00 | 0.00 | 0.00 | 91 | 1012.1 |
| 20260505010902 | 51 | 160 | 0.0 | 0.0 | 0.00 | 0.00 | 0.00 | 91 | 1012.1 |
| 20260505010802 | 51 | 160 | 0.0 | 0.0 | 0.00 | 0.00 | 0.00 | 91 | 1012.1 |
| 20260505010701 | 51 | 160 | 0.0 | 0.0 | 0.00 | 0.00 | 0.00 | 91 | 1012.1 |
| 20260505010602 | 51 | 160 | 0.0 | 0.0 | 0.00 | 0.00 | 0.00 | 91 | 1012.1 |
| 20260505010501 | 51 | 160 | 0.0 | 0.0 | 0.00 | 0.00 | 0.00 | 91 | 1012.1 |
| 20260505010402 | 51 | 160 | 0.0 | 0.0 | 0.00 | 0.00 | 0.00 | 91 | 1012.1 |
| 20260505010302 | 51 | 160 | 0.0 | 0.0 | 0.00 | 0.00 | 0.00 | 91 | 1012.0 |
| 20260505010201 | 51 | 160 | 0.0 | 0.0 | 0.00 | 0.00 | 0.00 | 91 | 1012.1 |
| 20260505010001 | 51 | 160 | 0.0 | 0.0 | 0.00 | 0.00 | 0.00 | 91 | 1012.1 |
| 20260505005902 | 51 | 160 | 0.0 | 0.0 | 0.00 | 0.00 | 0.00 | 91 | 1012.2 |
| 20260505005802 | 51 | 160 | 0.0 | 0.0 | 0.00 | 0.00 | 0.00 | 91 | 1012.2 |
| 20260505005702 | 51 | 160 | 0.0 | 0.0 | 0.00 | 0.00 | 0.00 | 91 | 1012.2 |
| 20260505005602 | 51 | 160 | 0.0 | 0.0 | 0.00 | 0.00 | 0.00 | 91 | 1012.2 |
| 20260505005501 | 51 | 160 | 0.0 | 0.0 | 0.00 | 0.00 | 0.00 | 91 | 1012.2 |
| 20260505005402 | 51 | 160 | 0.0 | 0.0 | 0.00 | 0.00 | 0.00 | 91 | 1012.2 |
| 20260505005303 | 51 | 160 | 0.0 | 0.0 | 0.00 | 0.00 | 0.00 | 91 | 1012.2 |
| 20260505005202 | 51 | 160 | 0.0 | 0.0 | 0.00 | 0.00 | 0.00 | 91 | 1012.2 |
| 20260505005102 | 51 | 160 | 0.0 | 0.0 | 0.00 | 0.00 | 0.00 | 91 | 1012.2 |
| 20260505005002 | 51 | 160 | 0.0 | 0.0 | 0.00 | 0.00 | 0.00 | 91 | 1012.2 |
| 20260505004902 | 51 | 160 | 0.0 | 0.0 | 0.00 | 0.00 | 0.00 | 91 | 1012.2 |
| 20260505004801 | 51 | 160 | 0.0 | 0.0 | 0.00 | 0.00 | 0.00 | 91 | 1012.2 |
| 20260505004702 | 51 | 160 | 0.0 | 0.0 | 0.00 | 0.00 | 0.00 | 91 | 1012.2 |
| 20260505004601 | 51 | 160 | 0.0 | 0.0 | 0.00 | 0.00 | 0.00 | 91 | 1012.2 |
| 20260505004502 | 51 | 160 | 0.0 | 0.0 | 0.00 | 0.00 | 0.00 | 91 | 1012.2 |
| 20260505004402 | 51 | 160 | 0.0 | 0.0 | 0.00 | 0.00 | 0.00 | 91 | 1012.2 |
| 20260505004302 | 51 | 160 | 0.0 | 0.0 | 0.00 | 0.00 | 0.00 | 91 | 1012.2 |
| 20260505004202 | 51 | 160 | 0.0 | 0.0 | 0.00 | 0.00 | 0.00 | 91 | 1012.2 |
| 20260505004101 | 51 | 160 | 0.0 | 0.0 | 0.00 | 0.00 | 0.00 | 91 | 1012.3 |
| 20260505004002 | 51 | 160 | 0.0 | 0.0 | 0.00 | 0.00 | 0.00 | 91 | 1012.2 |
| 20260505003901 | 51 | 160 | 0.0 | 0.0 | 0.00 | 0.00 | 0.00 | 91 | 1012.3 |
| 20260505003802 | 51 | 160 | 0.0 | 0.0 | 0.00 | 0.00 | 0.00 | 91 | 1012.3 |
| 20260505003701 | 51 | 160 | 0.0 | 0.0 | 0.00 | 0.00 | 0.00 | 91 | 1012.3 |
| 20260505003602 | 51 | 185 | 0.0 | 0.0 | 0.00 | 0.00 | 0.00 | 91 | 1012.3 |
| 20260505003502 | 51 | 185 | 0.0 | 0.0 | 0.00 | 0.00 | 0.00 | 91 | 1012.3 |
| 20260505003401 | 51 | 185 | 0.0 | 0.0 | 0.00 | 0.00 | 0.00 | 91 | 1012.3 |
| 20260505003302 | 51 | 80 | 0.0 | 0.0 | 0.00 | 0.00 | 0.00 | 91 | 1012.3 |
| 20260505003201 | 51 | 80 | 0.0 | 0.0 | 0.00 | 0.00 | 0.00 | 91 | 1012.3 |
| 20260505003102 | 51 | 80 | 0.0 | 0.0 | 0.00 | 0.00 | 0.00 | 91 | 1012.3 |
| 20260505003002 | 51 | 80 | 0.0 | 0.0 | 0.00 | 0.00 | 0.00 | 91 | 1012.3 |
| 20260505002902 | 51 | 80 | 0.0 | 0.0 | 0.00 | 0.00 | 0.00 | 91 | 1012.3 |
| 20260505002802 | 51 | 80 | 0.0 | 0.0 | 0.00 | 0.00 | 0.00 | 91 | 1012.3 |
| 20260505002701 | 51 | 80 | 0.0 | 0.0 | 0.00 | 0.00 | 0.00 | 91 | 1012.4 |
| 20260505002602 | 51 | 77 | 0.0 | 0.0 | 0.00 | 0.00 | 0.00 | 91 | 1012.3 |
| 20260505002501 | 51 | 77 | 0.0 | 0.0 | 0.00 | 0.00 | 0.00 | 91 | 1012.4 |
| 20260505002402 | 51 | 77 | 0.0 | 0.0 | 0.00 | 0.00 | 0.00 | 91 | 1012.4 |
| 20260505002303 | 51 | 220 | 0.0 | 0.0 | 0.00 | 0.00 | 0.00 | 91 | 1012.4 |
| 20260505002202 | 51 | 220 | 0.0 | 0.0 | 0.00 | 0.00 | 0.00 | 91 | 1012.4 |
| 20260505002101 | 51 | 220 | 0.0 | 0.0 | 0.00 | 0.00 | 0.00 | 91 | 1012.4 |
| 20260505002001 | 51 | 220 | 0.0 | 0.0 | 0.00 | 0.00 | 0.00 | 91 | 1012.3 |
| 20260505001902 | 51 | 220 | 0.0 | 0.0 | 0.00 | 0.00 | 0.00 | 91 | 1012.3 |
| 20260505001801 | 51 | 212 | 3.5 | 0.0 | 0.00 | 0.00 | 0.00 | 91 | 1012.2 |
| 20260505001702 | 51 | 212 | 3.5 | 0.0 | 0.00 | 0.00 | 0.00 | 91 | 1012.2 |
| 20260505001601 | 51 | 190 | 0.0 | 0.0 | 0.00 | 0.00 | 0.00 | 91 | 1012.3 |
| 20260505001502 | 51 | 190 | 0.0 | 0.0 | 0.00 | 0.00 | 0.00 | 91 | 1012.3 |
| 20260505001402 | 51 | 190 | 0.0 | 0.0 | 0.00 | 0.00 | 0.00 | 91 | 1012.4 |
| 20260505001301 | 51 | 175 | 0.0 | 0.0 | 0.00 | 0.00 | 0.00 | 91 | 1012.4 |
| 20260505001202 | 51 | 175 | 0.0 | 0.0 | 0.00 | 0.00 | 0.00 | 91 | 1012.5 |
| 20260505001101 | 51 | 212 | 0.0 | 0.0 | 0.00 | 0.00 | 0.00 | 91 | 1012.5 |
| 20260505001002 | 51 | 212 | 0.0 | 0.0 | 0.00 | 0.00 | 0.00 | 91 | 1012.6 |
| 20260505000901 | 51 | 212 | 0.0 | 0.0 | 0.00 | 0.00 | 0.00 | 91 | 1012.6 |
| 20260505000802 | 51 | 215 | 0.0 | 0.0 | 0.00 | 0.00 | 0.00 | 91 | 1012.5 |
| 20260505000703 | 51 | 215 | 0.0 | 0.0 | 0.00 | 0.00 | 0.00 | 91 | 1012.6 |
| 20260505000602 | 51 | 215 | 0.0 | 0.0 | 0.00 | 0.00 | 0.00 | 91 | 1012.6 |
| 20260505000502 | 51 | 207 | 0.0 | 0.0 | 0.00 | 0.00 | 0.00 | 90 | 1012.6 |
| 20260505000401 | 51 | 207 | 0.0 | 0.0 | 0.00 | 0.00 | 0.00 | 90 | 1012.7 |
| 20260505000302 | 51 | 215 | 0.0 | 0.0 | 0.00 | 0.00 | 0.00 | 90 | 1012.6 |
| 20260505000204 | 51 | 215 | 0.0 | 0.0 | 0.00 | 0.00 | 0.00 | 90 | 1012.6 |
| 20260505000001 | 51 | 195 | 0.0 | 0.0 | 0.00 | 0.00 | 0.00 | 90 | 1012.7 |
| 20260504235902 | 51 | 195 | 0.0 | 0.0 | 0.00 | 0.00 | 0.00 | 90 | 1012.7 |
| 20260504235802 | 51 | 170 | 0.0 | 0.0 | 0.00 | 0.00 | 0.00 | 90 | 1012.7 |
| 20260504235701 | 51 | 170 | 0.0 | 0.0 | 0.00 | 0.00 | 0.00 | 90 | 1012.8 |
| 20260504235602 | 51 | 170 | 0.0 | 0.0 | 0.00 | 0.00 | 0.00 | 90 | 1012.8 |
| 20260504235501 | 51 | 187 | 0.0 | 0.0 | 0.00 | 0.00 | 0.00 | 90 | 1012.8 |
| 20260504235402 | 51 | 187 | 0.0 | 0.0 | 0.00 | 0.00 | 0.00 | 90 | 1012.8 |
| 20260504235301 | 51 | 187 | 0.0 | 0.0 | 0.00 | 0.00 | 0.00 | 90 | 1012.9 |
| 20260504235202 | 51 | 187 | 0.0 | 0.0 | 0.00 | 0.00 | 0.00 | 90 | 1012.8 |
| 20260504235102 | 51 | 187 | 0.0 | 0.0 | 0.00 | 0.00 | 0.00 | 90 | 1012.8 |
| 20260504235002 | 51 | 187 | 0.0 | 0.0 | 0.00 | 0.00 | 0.00 | 90 | 1012.8 |
| 20260504234902 | 51 | 187 | 0.0 | 0.0 | 0.00 | 0.00 | 0.00 | 90 | 1012.9 |
| 20260504234801 | 51 | 232 | 0.0 | 0.0 | 0.00 | 0.00 | 0.00 | 90 | 1012.9 |
| 20260504234702 | 51 | 232 | 0.0 | 0.0 | 0.00 | 0.00 | 0.00 | 90 | 1012.9 |
| 20260504234601 | 51 | 232 | 0.0 | 0.0 | 0.00 | 0.00 | 0.00 | 90 | 1012.9 |
| 20260504234502 | 51 | 257 | 0.0 | 0.0 | 0.00 | 0.00 | 0.00 | 90 | 1012.9 |
| 20260504234401 | 51 | 257 | 0.0 | 0.0 | 0.00 | 0.00 | 0.00 | 90 | 1012.9 |
| 20260504234302 | 51 | 5 | 0.0 | 0.0 | 0.00 | 0.00 | 0.00 | 90 | 1012.9 |
| 20260504234202 | 51 | 5 | 0.0 | 0.0 | 0.00 | 0.00 | 0.00 | 90 | 1012.9 |
| 20260504234102 | 51 | 5 | 0.0 | 0.0 | 0.00 | 0.00 | 0.00 | 90 | 1012.9 |
| 20260504234002 | 51 | 105 | 0.0 | 0.0 | 0.00 | 0.00 | 0.00 | 90 | 1013.1 |
| 20260504233901 | 51 | 105 | 0.0 | 0.0 | 0.00 | 0.00 | 0.00 | 90 | 1012.9 |
| 20260504233802 | 51 | 115 | 0.0 | 0.0 | 0.00 | 0.00 | 0.00 | 90 | 1013.1 |
| 20260504233701 | 51 | 115 | 0.0 | 0.0 | 0.00 | 0.00 | 0.00 | 90 | 1013.1 |
| 20260504233602 | 51 | 115 | 0.0 | 0.0 | 0.00 | 0.00 | 0.00 | 90 | 1013.1 |
| 20260504233501 | 52 | 230 | 0.0 | 0.0 | 0.00 | 0.00 | 0.00 | 90 | 1013.1 |
| 20260504233402 | 52 | 230 | 0.0 | 0.0 | 0.00 | 0.00 | 0.00 | 90 | 1013.1 |
| 20260504233302 | 52 | 200 | 0.0 | 0.0 | 0.00 | 0.00 | 0.00 | 90 | 1013.2 |
| 20260504233202 | 52 | 200 | 0.0 | 0.0 | 0.00 | 0.00 | 0.00 | 90 | 1013.1 |
| 20260504233102 | 52 | 200 | 0.0 | 0.0 | 0.00 | 0.00 | 0.00 | 90 | 1013.1 |
| 20260504233001 | 52 | 177 | 0.0 | 0.0 | 0.00 | 0.00 | 0.00 | 90 | 1013.1 |
| 20260504232902 | 52 | 177 | 0.0 | 0.0 | 0.00 | 0.00 | 0.00 | 90 | 1013.1 |
| 20260504232801 | 52 | 215 | 0.0 | 0.0 | 0.00 | 0.00 | 0.00 | 90 | 1013.1 |
| 20260504232702 | 52 | 215 | 0.0 | 0.0 | 0.00 | 0.00 | 0.00 | 90 | 1013.1 |
| 20260504232602 | 52 | 215 | 0.0 | 0.0 | 0.00 | 0.00 | 0.00 | 90 | 1013.2 |
| 20260504232502 | 52 | 325 | 0.0 | 0.0 | 0.00 | 0.00 | 0.00 | 89 | 1013.2 |
| 20260504232402 | 52 | 325 | 0.0 | 0.0 | 0.00 | 0.00 | 0.00 | 89 | 1013.2 |
| 20260504232303 | 52 | 325 | 0.0 | 0.0 | 0.00 | 0.00 | 0.00 | 89 | 1013.2 |
| 20260504232202 | 52 | 65 | 0.0 | 0.0 | 0.00 | 0.00 | 0.00 | 89 | 1013.2 |
| 20260504232101 | 52 | 65 | 0.0 | 0.0 | 0.00 | 0.00 | 0.00 | 89 | 1013.3 |
| 20260504232002 | 52 | 85 | 0.0 | 0.0 | 0.00 | 0.00 | 0.00 | 89 | 1013.3 |
| 20260504231901 | 52 | 85 | 0.0 | 0.0 | 0.00 | 0.00 | 0.00 | 89 | 1013.3 |
| 20260504231802 | 52 | 85 | 0.0 | 0.0 | 0.00 | 0.00 | 0.00 | 89 | 1013.3 |
| 20260504231702 | 52 | 85 | 0.0 | 0.0 | 0.00 | 0.00 | 0.00 | 89 | 1013.4 |
| 20260504231601 | 52 | 85 | 0.0 | 0.0 | 0.00 | 0.00 | 0.00 | 89 | 1013.3 |
| 20260504231502 | 52 | 85 | 0.0 | 0.0 | 0.00 | 0.00 | 0.00 | 89 | 1013.4 |
| 20260504231401 | 52 | 82 | 0.0 | 0.0 | 0.00 | 0.00 | 0.00 | 89 | 1013.4 |
| 20260504231302 | 52 | 82 | 0.0 | 0.0 | 0.00 | 0.00 | 0.00 | 89 | 1013.3 |
| 20260504231201 | 52 | 75 | 0.0 | 0.0 | 0.00 | 0.00 | 0.00 | 89 | 1013.4 |
| 20260504231102 | 52 | 75 | 0.0 | 0.0 | 0.00 | 0.00 | 0.00 | 89 | 1013.3 |
| 20260504231001 | 52 | 75 | 0.0 | 0.0 | 0.00 | 0.00 | 0.00 | 89 | 1013.3 |
| 20260504230902 | 52 | 52 | 0.0 | 0.0 | 0.00 | 0.00 | 0.00 | 89 | 1013.4 |
| 20260504230803 | 52 | 52 | 0.0 | 0.0 | 0.00 | 0.00 | 0.00 | 89 | 1013.4 |
| 20260504230701 | 52 | 357 | 0.0 | 0.0 | 0.00 | 0.00 | 0.00 | 89 | 1013.4 |
| 20260504230602 | 52 | 357 | 0.0 | 0.0 | 0.00 | 0.00 | 0.00 | 89 | 1013.4 |
| 20260504230502 | 52 | 357 | 0.0 | 0.0 | 0.00 | 0.00 | 0.00 | 89 | 1013.3 |
| 20260504230402 | 52 | 260 | 0.0 | 0.0 | 0.00 | 0.00 | 0.00 | 89 | 1013.3 |
| 20260504230301 | 52 | 260 | 0.0 | 0.0 | 0.00 | 0.00 | 0.00 | 89 | 1013.3 |
| 20260504230202 | 52 | 215 | 0.0 | 0.0 | 0.00 | 0.00 | 0.00 | 89 | 1013.3 |
| 20260504230002 | 52 | 215 | 0.0 | 0.0 | 0.00 | 0.00 | 0.00 | 89 | 1013.3 |
| 20260504225902 | 52 | 215 | 0.0 | 0.0 | 0.00 | 0.00 | 0.00 | 89 | 1013.3 |
| 20260504225801 | 52 | 215 | 0.0 | 0.0 | 0.00 | 0.00 | 0.00 | 89 | 1013.3 |
| 20260504225702 | 52 | 217 | 0.0 | 0.0 | 0.00 | 0.00 | 0.00 | 89 | 1013.3 |
| 20260504225601 | 52 | 217 | 0.0 | 0.0 | 0.00 | 0.00 | 0.00 | 89 | 1013.3 |
| 20260504225502 | 52 | 217 | 0.0 | 0.0 | 0.00 | 0.00 | 0.00 | 89 | 1013.3 |
| 20260504225402 | 52 | 217 | 0.0 | 0.0 | 0.00 | 0.00 | 0.00 | 89 | 1013.3 |
| 20260504225304 | 52 | 217 | 0.0 | 0.0 | 0.00 | 0.00 | 0.00 | 89 | 1013.3 |
| 20260504225202 | 52 | 217 | 0.0 | 0.0 | 0.00 | 0.00 | 0.00 | 89 | 1013.4 |
| 20260504225102 | 52 | 217 | 0.0 | 0.0 | 0.00 | 0.00 | 0.00 | 89 | 1013.3 |
| 20260504225002 | 52 | 217 | 0.0 | 0.0 | 0.00 | 0.00 | 0.00 | 89 | 1013.3 |
| 20260504224901 | 52 | 222 | 0.0 | 0.0 | 0.00 | 0.00 | 0.00 | 89 | 1013.3 |
| 20260504224802 | 52 | 222 | 0.0 | 0.0 | 0.00 | 0.00 | 0.00 | 89 | 1013.3 |
| 20260504224701 | 52 | 192 | 0.0 | 0.0 | 0.00 | 0.00 | 0.00 | 89 | 1013.3 |
| 20260504224602 | 52 | 192 | 0.0 | 0.0 | 0.00 | 0.00 | 0.00 | 89 | 1013.3 |
| 20260504224501 | 52 | 155 | 0.0 | 0.0 | 0.00 | 0.00 | 0.00 | 89 | 1013.3 |
| 20260504224402 | 52 | 155 | 0.0 | 0.0 | 0.00 | 0.00 | 0.00 | 89 | 1013.4 |
| 20260504224301 | 52 | 155 | 0.0 | 0.0 | 0.00 | 0.00 | 0.00 | 89 | 1013.4 |
| 20260504224202 | 52 | 162 | 0.0 | 0.0 | 0.00 | 0.00 | 0.00 | 89 | 1013.4 |
| 20260504224102 | 52 | 162 | 0.0 | 0.0 | 0.00 | 0.00 | 0.00 | 89 | 1013.4 |
| 20260504224001 | 52 | 162 | 0.0 | 0.0 | 0.00 | 0.00 | 0.00 | 89 | 1013.4 |
| 20260504223902 | 52 | 180 | 0.0 | 0.0 | 0.00 | 0.00 | 0.00 | 89 | 1013.4 |
| 20260504223801 | 52 | 180 | 0.0 | 0.0 | 0.00 | 0.00 | 0.00 | 89 | 1013.4 |
| 20260504223702 | 52 | 215 | 0.0 | 0.0 | 0.00 | 0.00 | 0.00 | 89 | 1013.4 |
| 20260504223602 | 52 | 215 | 0.0 | 0.0 | 0.00 | 0.00 | 0.00 | 89 | 1013.4 |
| 20260504223502 | 52 | 207 | 0.0 | 0.0 | 0.00 | 0.00 | 0.00 | 89 | 1013.4 |
| 20260504223402 | 52 | 207 | 0.0 | 0.0 | 0.00 | 0.00 | 0.00 | 89 | 1013.4 |
| 20260504223301 | 52 | 207 | 0.0 | 0.0 | 0.00 | 0.00 | 0.00 | 89 | 1013.4 |
| 20260504223202 | 52 | 207 | 0.0 | 0.0 | 0.00 | 0.00 | 0.00 | 89 | 1013.4 |
| 20260504223101 | 52 | 207 | 0.0 | 0.0 | 0.00 | 0.00 | 0.00 | 89 | 1013.4 |
| 20260504223002 | 52 | 197 | 0.0 | 0.0 | 0.00 | 0.00 | 0.00 | 89 | 1013.4 |
| 20260504222901 | 52 | 197 | 0.0 | 0.0 | 0.00 | 0.00 | 0.00 | 89 | 1013.4 |
| 20260504222802 | 52 | 197 | 0.0 | 0.0 | 0.00 | 0.00 | 0.00 | 89 | 1013.4 |
| 20260504222702 | 52 | 190 | 0.0 | 0.0 | 0.00 | 0.00 | 0.00 | 89 | 1013.4 |
| 20260504222602 | 52 | 190 | 0.0 | 0.0 | 0.00 | 0.00 | 0.00 | 89 | 1013.4 |
| 20260504222502 | 52 | 190 | 0.0 | 0.0 | 0.00 | 0.00 | 0.00 | 89 | 1013.4 |
| 20260504222401 | 52 | 190 | 0.0 | 0.0 | 0.00 | 0.00 | 0.00 | 89 | 1013.4 |
| 20260504222302 | 52 | 190 | 0.0 | 0.0 | 0.00 | 0.00 | 0.00 | 89 | 1013.4 |
| 20260504222201 | 53 | 180 | 0.0 | 0.0 | 0.00 | 0.00 | 0.00 | 89 | 1013.4 |
| 20260504222102 | 53 | 180 | 0.0 | 0.0 | 0.00 | 0.00 | 0.00 | 89 | 1013.4 |
| 20260504222001 | 53 | 180 | 0.0 | 0.0 | 0.00 | 0.00 | 0.00 | 89 | 1013.4 |
| 20260504221902 | 53 | 210 | 3.5 | 0.0 | 0.00 | 0.00 | 0.00 | 89 | 1013.4 |
| 20260504221801 | 53 | 210 | 3.5 | 0.0 | 0.00 | 0.00 | 0.00 | 89 | 1013.4 |
| 20260504221701 | 53 | 210 | 3.5 | 0.0 | 0.00 | 0.00 | 0.00 | 89 | 1013.4 |
| 20260504221602 | 53 | 215 | 2.6 | 0.0 | 0.00 | 0.00 | 0.00 | 89 | 1013.4 |
| 20260504221501 | 53 | 215 | 2.6 | 0.0 | 0.00 | 0.00 | 0.00 | 89 | 1013.3 |
| 20260504221402 | 53 | 200 | 1.7 | 0.0 | 0.00 | 0.00 | 0.00 | 89 | 1013.4 |
| 20260504221301 | 53 | 200 | 1.7 | 0.0 | 0.00 | 0.00 | 0.00 | 89 | 1013.4 |
| 20260504221202 | 53 | 205 | 0.0 | 0.0 | 0.00 | 0.00 | 0.00 | 89 | 1013.4 |
| 20260504221102 | 53 | 205 | 0.0 | 0.0 | 0.00 | 0.00 | 0.00 | 89 | 1013.4 |
| 20260504221002 | 53 | 205 | 0.0 | 0.0 | 0.00 | 0.00 | 0.00 | 89 | 1013.4 |
| 20260504220902 | 53 | 187 | 0.0 | 0.0 | 0.00 | 0.00 | 0.00 | 89 | 1013.5 |
| 20260504220801 | 53 | 187 | 0.0 | 0.0 | 0.00 | 0.00 | 0.00 | 89 | 1013.5 |
| 20260504220702 | 53 | 187 | 0.0 | 0.0 | 0.00 | 0.00 | 0.00 | 89 | 1013.5 |
| 20260504220601 | 53 | 187 | 0.0 | 0.0 | 0.00 | 0.00 | 0.00 | 89 | 1013.4 |
| 20260504220502 | 53 | 187 | 0.0 | 0.0 | 0.00 | 0.00 | 0.00 | 89 | 1013.5 |
| 20260504220402 | 53 | 222 | 2.6 | 0.0 | 0.00 | 0.00 | 0.00 | 90 | 1013.5 |
| 20260504220302 | 53 | 222 | 2.6 | 0.0 | 0.00 | 0.00 | 0.00 | 90 | 1013.5 |
| 20260504220202 | 53 | 222 | 2.6 | 0.0 | 0.00 | 0.00 | 0.00 | 90 | 1013.4 |
| 20260504220002 | 53 | 222 | 2.6 | 0.0 | 0.00 | 0.00 | 0.00 | 90 | 1013.4 |
| 20260504215901 | 53 | 222 | 2.6 | 0.0 | 0.00 | 0.00 | 0.00 | 90 | 1013.4 |
| 20260504215802 | 53 | 222 | 2.6 | 0.0 | 0.00 | 0.00 | 0.00 | 90 | 1013.4 |
| 20260504215701 | 53 | 222 | 2.6 | 0.0 | 0.00 | 0.00 | 0.00 | 90 | 1013.4 |
| 20260504215602 | 53 | 215 | 3.5 | 0.0 | 0.00 | 0.00 | 0.00 | 90 | 1013.4 |
| 20260504215501 | 53 | 215 | 3.5 | 0.0 | 0.00 | 0.00 | 0.00 | 90 | 1013.4 |
| 20260504215402 | 53 | 215 | 3.5 | 0.0 | 0.00 | 0.00 | 0.00 | 90 | 1013.5 |
| 20260504215304 | 53 | 215 | 1.7 | 0.0 | 0.00 | 0.00 | 0.00 | 90 | 1013.5 |
| 20260504215201 | 53 | 215 | 1.7 | 0.0 | 0.00 | 0.00 | 0.00 | 90 | 1013.5 |
| 20260504215102 | 53 | 220 | 3.5 | 0.0 | 0.00 | 0.00 | 0.00 | 90 | 1013.5 |
| 20260504215001 | 53 | 220 | 3.5 | 0.0 | 0.00 | 0.00 | 0.00 | 90 | 1013.6 |
| 20260504214902 | 53 | 225 | 0.0 | 0.0 | 0.00 | 0.00 | 0.00 | 90 | 1013.6 |
| 20260504214802 | 53 | 225 | 0.0 | 0.0 | 0.00 | 0.00 | 0.00 | 90 | 1013.6 |
| 20260504214702 | 53 | 225 | 0.0 | 0.0 | 0.00 | 0.00 | 0.00 | 90 | 1013.6 |
| 20260504214601 | 53 | 205 | 2.6 | 0.0 | 0.00 | 0.00 | 0.00 | 90 | 1013.7 |
| 20260504214502 | 53 | 205 | 2.6 | 0.0 | 0.00 | 0.00 | 0.00 | 90 | 1013.6 |
| 20260504214402 | 53 | 210 | 3.5 | 0.0 | 0.00 | 0.00 | 0.00 | 90 | 1013.7 |
| 20260504214301 | 53 | 210 | 3.5 | 0.0 | 0.00 | 0.00 | 0.00 | 90 | 1013.7 |
| 20260504214202 | 53 | 210 | 3.5 | 0.0 | 0.00 | 0.00 | 0.00 | 90 | 1013.7 |
| 20260504214101 | 53 | 210 | 3.5 | 0.0 | 0.00 | 0.00 | 0.00 | 90 | 1013.7 |
| 20260504214002 | 53 | 205 | 0.0 | 0.0 | 0.00 | 0.00 | 0.00 | 90 | 1013.7 |
| 20260504213901 | 53 | 205 | 0.0 | 0.0 | 0.00 | 0.00 | 0.00 | 90 | 1013.8 |
| 20260504213802 | 53 | 215 | 0.0 | 0.0 | 0.00 | 0.00 | 0.00 | 90 | 1013.8 |
| 20260504213702 | 53 | 215 | 0.0 | 0.0 | 0.00 | 0.00 | 0.00 | 90 | 1013.8 |
| 20260504213601 | 53 | 212 | 0.0 | 0.0 | 0.00 | 0.00 | 0.00 | 90 | 1013.8 |
| 20260504213502 | 53 | 212 | 0.0 | 0.0 | 0.00 | 0.00 | 0.00 | 90 | 1013.8 |
| 20260504213401 | 53 | 212 | 0.0 | 0.0 | 0.00 | 0.00 | 0.00 | 90 | 1013.8 |
| 20260504213302 | 53 | 220 | 0.0 | 0.0 | 0.00 | 0.00 | 0.00 | 90 | 1013.8 |
| 20260504213201 | 53 | 220 | 0.0 | 0.0 | 0.00 | 0.00 | 0.00 | 90 | 1013.8 |
| 20260504213102 | 53 | 220 | 0.0 | 0.0 | 0.00 | 0.00 | 0.00 | 90 | 1013.9 |
| 20260504213001 | 53 | 217 | 0.0 | 0.0 | 0.00 | 0.00 | 0.00 | 90 | 1013.9 |
| 20260504212902 | 53 | 217 | 0.0 | 0.0 | 0.00 | 0.00 | 0.00 | 90 | 1013.9 |
| 20260504212802 | 53 | 207 | 0.0 | 0.0 | 0.00 | 0.00 | 0.00 | 90 | 1013.9 |
| 20260504212702 | 53 | 207 | 0.0 | 0.0 | 0.00 | 0.00 | 0.00 | 90 | 1013.9 |
| 20260504212602 | 53 | 220 | 0.0 | 0.0 | 0.00 | 0.00 | 0.00 | 90 | 1013.9 |
| 20260504212501 | 53 | 220 | 0.0 | 0.0 | 0.00 | 0.00 | 0.00 | 90 | 1014.0 |
| 20260504212402 | 53 | 220 | 0.0 | 0.0 | 0.00 | 0.00 | 0.00 | 90 | 1013.9 |
| 20260504212303 | 53 | 220 | 0.0 | 0.0 | 0.00 | 0.00 | 0.00 | 90 | 1013.9 |
| 20260504212202 | 53 | 220 | 0.0 | 0.0 | 0.00 | 0.00 | 0.00 | 90 | 1014.0 |
| 20260504212102 | 53 | 220 | 0.0 | 0.0 | 0.00 | 0.00 | 0.00 | 90 | 1014.0 |
| 20260504212001 | 53 | 215 | 0.0 | 0.0 | 0.00 | 0.00 | 0.00 | 90 | 1014.0 |
| 20260504211902 | 53 | 215 | 0.0 | 0.0 | 0.00 | 0.00 | 0.00 | 90 | 1014.0 |
| 20260504211801 | 53 | 215 | 0.0 | 0.0 | 0.00 | 0.00 | 0.00 | 90 | 1014.0 |
| 20260504211702 | 53 | 215 | 0.0 | 0.0 | 0.00 | 0.00 | 0.00 | 90 | 1014.0 |
| 20260504211601 | 53 | 210 | 2.6 | 0.0 | 0.00 | 0.00 | 0.00 | 90 | 1014.0 |
| 20260504211502 | 53 | 210 | 2.6 | 0.0 | 0.00 | 0.00 | 0.00 | 90 | 1014.0 |
| 20260504211401 | 53 | 210 | 2.6 | 0.0 | 0.00 | 0.00 | 0.00 | 90 | 1014.1 |
| 20260504211302 | 53 | 210 | 2.6 | 0.0 | 0.00 | 0.00 | 0.00 | 90 | 1014.1 |
| 20260504211202 | 53 | 210 | 2.6 | 0.0 | 0.00 | 0.00 | 0.00 | 90 | 1014.1 |
| 20260504211101 | 53 | 212 | 0.0 | 0.0 | 0.00 | 0.00 | 0.00 | 90 | 1014.1 |
| 20260504211002 | 53 | 212 | 0.0 | 0.0 | 0.00 | 0.00 | 0.00 | 90 | 1014.1 |
| 20260504210901 | 53 | 212 | 0.0 | 0.0 | 0.00 | 0.00 | 0.00 | 90 | 1014.1 |
| 20260504210802 | 53 | 210 | 0.0 | 0.0 | 0.00 | 0.00 | 0.00 | 90 | 1014.1 |
| 20260504210701 | 53 | 210 | 0.0 | 0.0 | 0.00 | 0.00 | 0.00 | 90 | 1014.2 |
| 20260504210602 | 53 | 210 | 0.0 | 0.0 | 0.00 | 0.00 | 0.00 | 90 | 1014.2 |
| 20260504210502 | 53 | 210 | 0.0 | 0.0 | 0.00 | 0.00 | 0.00 | 90 | 1014.2 |
| 20260504210402 | 53 | 210 | 0.0 | 0.0 | 0.00 | 0.00 | 0.00 | 90 | 1014.2 |
| 20260504210302 | 53 | 200 | 0.0 | 0.0 | 0.00 | 0.00 | 0.00 | 90 | 1014.2 |
| 20260504210201 | 53 | 200 | 0.0 | 0.0 | 0.00 | 0.00 | 0.00 | 90 | 1014.2 |
| 20260504210001 | 53 | 227 | 0.0 | 0.0 | 0.00 | 0.00 | 0.00 | 90 | 1014.2 |
| 20260504205902 | 53 | 227 | 0.0 | 0.0 | 0.00 | 0.00 | 0.00 | 90 | 1014.2 |
| 20260504205802 | 53 | 225 | 0.0 | 0.0 | 0.00 | 0.00 | 0.00 | 90 | 1014.2 |
| 20260504205702 | 53 | 225 | 0.0 | 0.0 | 0.00 | 0.00 | 0.00 | 90 | 1014.2 |
| 20260504205602 | 53 | 225 | 0.0 | 0.0 | 0.00 | 0.00 | 0.00 | 90 | 1014.3 |
| 20260504205501 | 53 | 225 | 0.0 | 0.0 | 0.00 | 0.00 | 0.00 | 90 | 1014.3 |
| 20260504205402 | 53 | 225 | 0.0 | 0.0 | 0.00 | 0.00 | 0.00 | 90 | 1014.3 |
| 20260504205301 | 53 | 210 | 0.0 | 0.0 | 0.00 | 0.00 | 0.00 | 89 | 1014.3 |
| 20260504205202 | 53 | 210 | 0.0 | 0.0 | 0.00 | 0.00 | 0.00 | 89 | 1014.3 |
| 20260504205101 | 53 | 200 | 0.0 | 0.0 | 0.00 | 0.00 | 0.00 | 89 | 1014.3 |
| 20260504205002 | 53 | 200 | 0.0 | 0.0 | 0.00 | 0.00 | 0.00 | 89 | 1014.3 |
| 20260504204902 | 53 | 200 | 0.0 | 0.0 | 0.00 | 0.00 | 0.00 | 89 | 1014.3 |
| 20260504204801 | 53 | 192 | 0.0 | 0.0 | 0.00 | 0.00 | 0.00 | 89 | 1014.3 |
| 20260504204702 | 53 | 192 | 0.0 | 0.0 | 0.00 | 0.00 | 0.00 | 89 | 1014.4 |
| 20260504204601 | 53 | 192 | 0.0 | 0.0 | 0.00 | 0.00 | 0.00 | 89 | 1014.4 |
| 20260504204502 | 53 | 222 | 0.0 | 0.0 | 0.00 | 0.00 | 0.00 | 89 | 1014.4 |
| 20260504204401 | 53 | 222 | 0.0 | 0.0 | 0.00 | 0.00 | 0.00 | 89 | 1014.4 |
| 20260504204302 | 53 | 222 | 0.0 | 0.0 | 0.00 | 0.00 | 0.00 | 89 | 1014.4 |
| 20260504204202 | 53 | 222 | 0.0 | 0.0 | 0.00 | 0.00 | 0.00 | 89 | 1014.4 |
| 20260504204102 | 53 | 222 | 0.0 | 0.0 | 0.00 | 0.00 | 0.00 | 89 | 1014.4 |
| 20260504204002 | 53 | 222 | 0.0 | 0.0 | 0.00 | 0.00 | 0.00 | 89 | 1014.4 |
| 20260504203901 | 53 | 222 | 0.0 | 0.0 | 0.00 | 0.00 | 0.00 | 89 | 1014.4 |
| 20260504203802 | 53 | 225 | 0.0 | 0.0 | 0.00 | 0.00 | 0.00 | 89 | 1014.4 |
| 20260504203701 | 53 | 225 | 0.0 | 0.0 | 0.00 | 0.00 | 0.00 | 89 | 1014.4 |
| 20260504203602 | 53 | 225 | 0.0 | 0.0 | 0.00 | 0.00 | 0.00 | 89 | 1014.4 |
| 20260504203502 | 53 | 240 | 0.0 | 0.0 | 0.00 | 0.00 | 0.00 | 89 | 1014.3 |
| 20260504203402 | 53 | 240 | 0.0 | 0.0 | 0.00 | 0.00 | 0.00 | 89 | 1014.4 |
| 20260504203302 | 53 | 240 | 0.0 | 0.0 | 0.00 | 0.00 | 0.00 | 89 | 1014.4 |
| 20260504203201 | 53 | 240 | 0.0 | 0.0 | 0.00 | 0.00 | 0.00 | 89 | 1014.5 |
| 20260504203102 | 53 | 240 | 0.0 | 0.0 | 0.00 | 0.00 | 0.00 | 89 | 1014.5 |
| 20260504203001 | 53 | 240 | 0.0 | 0.0 | 0.00 | 0.00 | 0.00 | 89 | 1014.5 |
| 20260504202902 | 53 | 240 | 0.0 | 0.0 | 0.00 | 0.00 | 0.00 | 89 | 1014.5 |
| 20260504202801 | 53 | 270 | 0.0 | 0.0 | 0.00 | 0.00 | 0.00 | 89 | 1014.5 |
| 20260504202702 | 53 | 270 | 0.0 | 0.0 | 0.00 | 0.00 | 0.00 | 89 | 1014.6 |
| 20260504202602 | 53 | 270 | 0.0 | 0.0 | 0.00 | 0.00 | 0.00 | 89 | 1014.6 |
| 20260504202502 | 53 | 262 | 0.0 | 0.0 | 0.00 | 0.00 | 0.00 | 89 | 1014.5 |
| 20260504202402 | 53 | 262 | 0.0 | 0.0 | 0.00 | 0.00 | 0.00 | 89 | 1014.5 |
| 20260504202301 | 53 | 262 | 0.0 | 0.0 | 0.00 | 0.00 | 0.00 | 89 | 1014.5 |
| 20260504202202 | 53 | 222 | 0.0 | 0.0 | 0.00 | 0.00 | 0.00 | 89 | 1014.5 |
| 20260504202101 | 53 | 222 | 0.0 | 0.0 | 0.00 | 0.00 | 0.00 | 89 | 1014.5 |
| 20260504202002 | 53 | 222 | 0.0 | 0.0 | 0.00 | 0.00 | 0.00 | 89 | 1014.5 |
| 20260504201902 | 53 | 222 | 0.0 | 0.0 | 0.00 | 0.00 | 0.00 | 89 | 1014.5 |
| 20260504201802 | 53 | 222 | 0.0 | 0.0 | 0.00 | 0.00 | 0.00 | 89 | 1014.5 |
| 20260504201702 | 53 | 247 | 0.0 | 0.0 | 0.00 | 0.00 | 0.00 | 89 | 1014.4 |
| 20260504201602 | 53 | 247 | 0.0 | 0.0 | 0.00 | 0.00 | 0.00 | 89 | 1014.4 |
| 20260504201502 | 53 | 247 | 0.0 | 0.0 | 0.00 | 0.00 | 0.00 | 89 | 1014.4 |
| 20260504201401 | 53 | 245 | 0.0 | 0.0 | 0.00 | 0.00 | 0.00 | 89 | 1014.4 |
| 20260504201302 | 53 | 245 | 0.0 | 0.0 | 0.00 | 0.00 | 0.00 | 89 | 1014.5 |
| 20260504201201 | 53 | 245 | 0.0 | 0.0 | 0.00 | 0.00 | 0.00 | 89 | 1014.5 |
| 20260504201102 | 53 | 245 | 0.0 | 0.0 | 0.00 | 0.00 | 0.00 | 89 | 1014.5 |
| 20260504201001 | 53 | 245 | 0.0 | 0.0 | 0.00 | 0.00 | 0.00 | 89 | 1014.5 |
| 20260504200902 | 53 | 245 | 0.0 | 0.0 | 0.00 | 0.00 | 0.00 | 89 | 1014.5 |
| 20260504200702 | 53 | 245 | 0.0 | 0.0 | 0.00 | 0.00 | 0.00 | 89 | 1014.4 |
| 20260504200602 | 53 | 245 | 0.0 | 0.0 | 0.00 | 0.00 | 0.00 | 89 | 1014.5 |
| 20260504200502 | 53 | 245 | 0.0 | 0.0 | 0.00 | 0.00 | 0.00 | 89 | 1014.5 |
| 20260504200402 | 53 | 245 | 0.0 | 0.0 | 0.00 | 0.00 | 0.00 | 89 | 1014.5 |
| 20260504200301 | 53 | 245 | 0.0 | 0.0 | 0.00 | 0.00 | 0.00 | 89 | 1014.4 |
| 20260504200202 | 53 | 245 | 0.0 | 0.0 | 0.00 | 0.00 | 0.00 | 89 | 1014.5 |
| 20260504200002 | 54 | 245 | 0.0 | 0.0 | 0.00 | 0.00 | 0.00 | 89 | 1014.4 |
| 20260504195901 | 54 | 245 | 0.0 | 0.0 | 0.00 | 0.00 | 0.00 | 89 | 1014.4 |
| 20260504195802 | 54 | 245 | 0.0 | 0.0 | 0.00 | 0.00 | 0.00 | 89 | 1014.4 |
| 20260504195702 | 54 | 245 | 0.0 | 0.0 | 0.00 | 0.00 | 0.00 | 89 | 1014.4 |
| 20260504195602 | 54 | 245 | 0.0 | 0.0 | 0.00 | 0.00 | 0.00 | 89 | 1014.3 |
| 20260504195502 | 54 | 245 | 0.0 | 0.0 | 0.00 | 0.00 | 0.00 | 89 | 1014.4 |
| 20260504195401 | 54 | 245 | 0.0 | 0.0 | 0.00 | 0.00 | 0.00 | 89 | 1014.4 |
| 20260504195304 | 54 | 245 | 0.0 | 0.0 | 0.00 | 0.00 | 0.00 | 89 | 1014.4 |
| 20260504195201 | 54 | 247 | 0.0 | 0.0 | 0.00 | 0.00 | 0.00 | 89 | 1014.4 |
| 20260504195102 | 54 | 247 | 0.0 | 0.0 | 0.00 | 0.00 | 0.00 | 89 | 1014.4 |
| 20260504195002 | 54 | 247 | 0.0 | 0.0 | 0.00 | 0.00 | 0.00 | 89 | 1014.3 |
| 20260504194901 | 54 | 87 | 0.0 | 0.0 | 0.00 | 0.00 | 0.00 | 89 | 1014.3 |
| 20260504194802 | 54 | 87 | 0.0 | 0.0 | 0.00 | 0.00 | 0.00 | 89 | 1014.4 |
| 20260504194701 | 54 | 5 | 0.0 | 0.0 | 0.00 | 0.00 | 0.00 | 89 | 1014.3 |
| 20260504194602 | 54 | 5 | 0.0 | 0.0 | 0.00 | 0.00 | 0.00 | 89 | 1014.3 |
| 20260504194502 | 54 | 60 | 0.0 | 0.0 | 0.00 | 0.00 | 0.00 | 89 | 1014.3 |
| 20260504194402 | 54 | 60 | 0.0 | 0.0 | 0.00 | 0.00 | 0.00 | 89 | 1014.3 |
| 20260504194302 | 54 | 60 | 0.0 | 0.0 | 0.00 | 0.00 | 0.00 | 89 | 1014.3 |
| 20260504194202 | 54 | 145 | 0.0 | 0.0 | 0.00 | 0.00 | 0.00 | 89 | 1014.2 |
| 20260504194101 | 54 | 145 | 0.0 | 0.0 | 0.00 | 0.00 | 0.00 | 89 | 1014.3 |
| 20260504194002 | 54 | 145 | 0.0 | 0.0 | 0.00 | 0.00 | 0.00 | 89 | 1014.3 |
| 20260504193901 | 54 | 195 | 0.0 | 0.0 | 0.00 | 0.00 | 0.00 | 89 | 1014.3 |
| 20260504193802 | 54 | 195 | 0.0 | 0.0 | 0.00 | 0.00 | 0.00 | 89 | 1014.2 |
| 20260504193702 | 54 | 202 | 0.0 | 0.0 | 0.00 | 0.00 | 0.00 | 89 | 1014.3 |
| 20260504193602 | 54 | 202 | 0.0 | 0.0 | 0.00 | 0.00 | 0.00 | 89 | 1014.2 |
| 20260504193502 | 54 | 217 | 0.0 | 0.0 | 0.00 | 0.00 | 0.00 | 89 | 1014.2 |
| 20260504193401 | 54 | 217 | 0.0 | 0.0 | 0.00 | 0.00 | 0.00 | 89 | 1014.2 |
| 20260504193302 | 54 | 217 | 0.0 | 0.0 | 0.00 | 0.00 | 0.00 | 89 | 1014.1 |
| 20260504193201 | 54 | 205 | 3.5 | 0.0 | 0.00 | 0.00 | 0.00 | 89 | 1014.1 |
| 20260504193102 | 54 | 205 | 3.5 | 0.0 | 0.00 | 0.00 | 0.00 | 89 | 1014.1 |
| 20260504193001 | 54 | 205 | 3.5 | 0.0 | 0.00 | 0.00 | 0.00 | 89 | 1014.1 |
| 20260504192937 | 54 | 205 | 4.3 | 0.0 | 0.00 | 0.00 | 0.00 | 89 | 1014.1 |
| 20260504192801 | 54 | 205 | 4.3 | 0.0 | 0.00 | 0.00 | 0.00 | 89 | 1014.0 |
| 20260504192702 | 54 | 205 | 4.3 | 0.0 | 0.00 | 0.00 | 0.00 | 89 | 1014.0 |
| 20260504192637 | 54 | 205 | 4.3 | 0.0 | 0.00 | 0.00 | 0.00 | 89 | 1014.0 |
| 20260504192501 | 54 | 205 | 4.3 | 0.0 | 0.00 | 0.00 | 0.00 | 89 | 1014.0 |
| 20260504192402 | 54 | 205 | 4.3 | 0.0 | 0.00 | 0.00 | 0.00 | 89 | 1014.0 |
| 20260504192301 | 54 | 205 | 4.3 | 0.0 | 0.00 | 0.00 | 0.00 | 89 | 1014.1 |
| 20260504192202 | 54 | 172 | 2.6 | 0.0 | 0.00 | 0.00 | 0.00 | 89 | 1014.1 |
| 20260504192101 | 54 | 172 | 2.6 | 0.0 | 0.00 | 0.00 | 0.00 | 89 | 1014.1 |
| 20260504192002 | 54 | 172 | 2.6 | 0.0 | 0.00 | 0.00 | 0.00 | 89 | 1014.1 |
| 20260504191902 | 54 | 147 | 0.0 | 0.0 | 0.00 | 0.00 | 0.00 | 89 | 1014.2 |
| 20260504191801 | 54 | 147 | 0.0 | 0.0 | 0.00 | 0.00 | 0.00 | 89 | 1014.2 |
| 20260504191702 | 54 | 147 | 0.0 | 0.0 | 0.00 | 0.00 | 0.00 | 89 | 1014.2 |
| 20260504191602 | 54 | 125 | 0.0 | 0.0 | 0.00 | 0.00 | 0.00 | 88 | 1014.2 |
| 20260504191502 | 54 | 125 | 0.0 | 0.0 | 0.00 | 0.00 | 0.00 | 88 | 1014.3 |
| 20260504191401 | 54 | 95 | 0.0 | 0.0 | 0.00 | 0.00 | 0.00 | 88 | 1014.3 |
| 20260504191302 | 54 | 95 | 0.0 | 0.0 | 0.00 | 0.00 | 0.00 | 88 | 1013.2 |
| 20260504191201 | 54 | 60 | 4.3 | 0.0 | 0.00 | 0.00 | 0.00 | 88 | 1013.2 |
| 20260504191102 | 54 | 60 | 4.3 | 0.0 | 0.00 | 0.00 | 0.00 | 88 | 1013.2 |
| 20260504191001 | 54 | 60 | 4.3 | 0.0 | 0.00 | 0.00 | 0.00 | 88 | 1013.2 |
| 20260504190902 | 54 | 60 | 4.3 | 0.0 | 0.00 | 0.00 | 0.00 | 88 | 1013.2 |
| 20260504190802 | 54 | 60 | 4.3 | 0.0 | 0.00 | 0.00 | 0.00 | 88 | 1013.2 |
| 20260504190702 | 55 | 55 | 2.6 | 0.0 | 0.00 | 0.00 | 0.00 | 87 | 1013.2 |
| 20260504190601 | 55 | 55 | 2.6 | 0.0 | 0.00 | 0.00 | 0.00 | 87 | 1013.2 |
| 20260504190501 | 55 | 55 | 2.6 | 0.0 | 0.00 | 0.00 | 0.00 | 87 | 1013.2 |
| 20260504190402 | 55 | 55 | 2.6 | 0.0 | 0.00 | 0.00 | 0.00 | 87 | 1013.2 |
| 20260504190301 | 55 | 55 | 2.6 | 0.0 | 0.00 | 0.00 | 0.00 | 87 | 1013.2 |
| 20260504190202 | 55 | 55 | 2.6 | 0.0 | 0.00 | 0.00 | 0.00 | 87 | 1013.2 |
| 20260504190002 | 55 | 60 | 3.5 | 0.0 | 0.00 | 0.00 | 0.00 | 87 | 1013.2 |
| 20260504185901 | 55 | 62 | 5.2 | 0.0 | 0.00 | 0.00 | 0.00 | 87 | 1013.2 |
| 20260504185801 | 55 | 62 | 5.2 | 0.0 | 0.00 | 0.00 | 0.00 | 87 | 1013.2 |
| 20260504185702 | 55 | 62 | 5.2 | 0.0 | 0.00 | 0.00 | 0.00 | 87 | 1013.2 |
| 20260504185601 | 55 | 57 | 5.2 | 0.0 | 0.00 | 0.00 | 0.00 | 86 | 1013.2 |
| 20260504185502 | 55 | 57 | 5.2 | 0.0 | 0.00 | 0.00 | 0.00 | 86 | 1013.2 |
| 20260504185401 | 55 | 57 | 5.2 | 0.0 | 0.00 | 0.00 | 0.00 | 86 | 1013.2 |
| 20260504185304 | 55 | 62 | 7.0 | 0.0 | 0.00 | 0.00 | 0.00 | 86 | 1013.2 |
| 20260504185202 | 55 | 62 | 7.0 | 0.0 | 0.00 | 0.00 | 0.00 | 86 | 1013.2 |
| 20260504185102 | 55 | 75 | 6.1 | 0.0 | 0.00 | 0.00 | 0.00 | 86 | 1013.2 |
| 20260504185002 | 55 | 75 | 6.1 | 0.0 | 0.00 | 0.00 | 0.00 | 86 | 1013.2 |
| 20260504184902 | 55 | 80 | 2.6 | 0.0 | 0.00 | 0.00 | 0.00 | 86 | 1013.2 |
| 20260504184802 | 55 | 75 | 5.2 | 0.0 | 0.00 | 0.00 | 0.00 | 85 | 1013.2 |
| 20260504184701 | 55 | 75 | 5.2 | 0.0 | 0.00 | 0.00 | 0.00 | 85 | 1013.2 |
| 20260504184602 | 56 | 62 | 7.0 | 0.0 | 0.00 | 0.00 | 0.00 | 84 | 1013.2 |
| 20260504184501 | 56 | 62 | 7.0 | 0.0 | 0.00 | 0.00 | 0.00 | 84 | 1013.2 |
| 20260504184402 | 56 | 62 | 7.0 | 0.0 | 0.00 | 0.00 | 0.00 | 84 | 1013.2 |
| 20260504184301 | 56 | 62 | 7.0 | 0.0 | 0.00 | 0.00 | 0.00 | 84 | 1013.2 |
| 20260504184202 | 56 | 62 | 7.0 | 0.0 | 0.00 | 0.00 | 0.00 | 84 | 1013.2 |
| 20260504184101 | 56 | 62 | 7.0 | 0.0 | 0.00 | 0.00 | 0.00 | 84 | 1013.2 |
| 20260504184002 | 56 | 62 | 7.0 | 0.0 | 0.00 | 0.00 | 0.00 | 84 | 1013.2 |
| 20260504183901 | 56 | 62 | 7.0 | 0.0 | 0.00 | 0.00 | 0.00 | 84 | 1013.2 |
| 20260504183802 | 56 | 75 | 4.3 | 0.0 | 0.00 | 0.00 | 0.00 | 83 | 1013.2 |
| 20260504183703 | 56 | 75 | 4.3 | 0.0 | 0.00 | 0.00 | 0.00 | 83 | 1013.2 |
| 20260504183602 | 56 | 75 | 4.3 | 0.0 | 0.00 | 0.00 | 0.00 | 83 | 1013.2 |
| 20260504183502 | 56 | 75 | 4.3 | 0.0 | 0.00 | 0.00 | 0.00 | 83 | 1013.2 |
| 20260504183401 | 56 | 75 | 4.3 | 0.0 | 0.00 | 0.00 | 0.00 | 83 | 1013.2 |
| 20260504183302 | 56 | 75 | 4.3 | 0.0 | 0.00 | 0.00 | 0.00 | 83 | 1013.2 |
| 20260504183202 | 56 | 75 | 4.3 | 0.0 | 0.00 | 0.00 | 0.00 | 83 | 1013.2 |
| 20260504183102 | 56 | 75 | 4.3 | 0.0 | 0.00 | 0.00 | 0.00 | 83 | 1013.2 |
| 20260504183001 | 57 | 75 | 5.2 | 0.0 | 0.00 | 0.00 | 0.00 | 82 | 1013.2 |
| 20260504182902 | 57 | 75 | 5.2 | 0.0 | 0.00 | 0.00 | 0.00 | 82 | 1013.2 |
| 20260504182801 | 57 | 75 | 5.2 | 0.0 | 0.00 | 0.00 | 0.00 | 82 | 1013.2 |
| 20260504182702 | 57 | 75 | 5.2 | 0.0 | 0.00 | 0.00 | 0.00 | 82 | 1013.2 |
| 20260504182601 | 57 | 77 | 3.5 | 0.0 | 0.00 | 0.00 | 0.00 | 82 | 1013.2 |
| 20260504182502 | 57 | 77 | 3.5 | 0.0 | 0.00 | 0.00 | 0.00 | 82 | 1013.2 |
| 20260504182402 | 57 | 77 | 3.5 | 0.0 | 0.00 | 0.00 | 0.00 | 82 | 1013.2 |
| 20260504182301 | 57 | 80 | 0.0 | 0.0 | 0.00 | 0.00 | 0.00 | 82 | 1013.2 |
| 20260504182202 | 57 | 80 | 0.0 | 0.0 | 0.00 | 0.00 | 0.00 | 82 | 1013.2 |
| 20260504182101 | 57 | 80 | 0.0 | 0.0 | 0.00 | 0.00 | 0.00 | 82 | 1013.2 |
| 20260504182002 | 57 | 80 | 0.0 | 0.0 | 0.00 | 0.00 | 0.00 | 82 | 1013.2 |
| 20260504181901 | 57 | 80 | 0.0 | 0.0 | 0.00 | 0.00 | 0.00 | 82 | 1013.2 |
| 20260504181802 | 57 | 82 | 3.5 | 0.0 | 0.00 | 0.00 | 0.00 | 82 | 1013.2 |
| 20260504181702 | 57 | 82 | 3.5 | 0.0 | 0.00 | 0.00 | 0.00 | 82 | 1013.2 |
| 20260504181601 | 57 | 82 | 0.0 | 0.0 | 0.00 | 0.00 | 0.00 | 81 | 1013.2 |
| 20260504181502 | 57 | 82 | 0.0 | 0.0 | 0.00 | 0.00 | 0.00 | 81 | 1013.2 |
| 20260504181401 | 57 | 82 | 0.0 | 0.0 | 0.00 | 0.00 | 0.00 | 81 | 1013.2 |
| 20260504181302 | 57 | 90 | 5.2 | 0.0 | 0.00 | 0.00 | 0.00 | 81 | 1013.2 |
| 20260504181201 | 57 | 90 | 5.2 | 0.0 | 0.00 | 0.00 | 0.00 | 81 | 1013.2 |
| 20260504181102 | 57 | 92 | 5.2 | 0.0 | 0.00 | 0.00 | 0.00 | 81 | 1013.2 |
| 20260504181001 | 57 | 92 | 5.2 | 0.0 | 0.00 | 0.00 | 0.00 | 81 | 1013.2 |
| 20260504180902 | 57 | 92 | 5.2 | 0.0 | 0.00 | 0.00 | 0.00 | 81 | 1013.2 |
| 20260504180802 | 57 | 95 | 1.7 | 0.0 | 0.00 | 0.00 | 0.00 | 81 | 1013.2 |
| 20260504180702 | 57 | 95 | 1.7 | 0.0 | 0.00 | 0.00 | 0.00 | 81 | 1013.2 |
| 20260504180602 | 57 | 95 | 1.7 | 0.0 | 0.00 | 0.00 | 0.00 | 81 | 1013.2 |
| 20260504180502 | 57 | 145 | 0.0 | 0.0 | 0.00 | 0.00 | 0.00 | 81 | 1013.2 |
| 20260504180402 | 57 | 145 | 0.0 | 0.0 | 0.00 | 0.00 | 0.00 | 81 | 1013.2 |
| 20260504180301 | 57 | 145 | 0.0 | 0.0 | 0.00 | 0.00 | 0.00 | 81 | 1013.2 |
| 20260504180202 | 57 | 145 | 0.0 | 0.0 | 0.00 | 0.00 | 0.00 | 81 | 1013.2 |
| 20260504180002 | 57 | 165 | 0.0 | 0.0 | 0.00 | 0.00 | 0.00 | 81 | 1013.2 |
| 20260504175902 | 57 | 165 | 0.0 | 0.0 | 0.00 | 0.00 | 0.00 | 81 | 1013.2 |
| 20260504175801 | 57 | 165 | 0.0 | 0.0 | 0.00 | 0.00 | 0.00 | 81 | 1013.2 |
| 20260504175702 | 57 | 177 | 0.0 | 0.0 | 0.00 | 0.00 | 0.00 | 81 | 1013.2 |
| 20260504175601 | 57 | 177 | 0.0 | 0.0 | 0.00 | 0.00 | 0.00 | 81 | 1013.2 |
| 20260504175502 | 57 | 175 | 0.0 | 0.0 | 0.00 | 0.00 | 0.00 | 81 | 1013.2 |
| 20260504175401 | 57 | 175 | 0.0 | 0.0 | 0.00 | 0.00 | 0.00 | 81 | 1013.2 |
| 20260504175304 | 57 | 195 | 0.0 | 0.0 | 0.00 | 0.00 | 0.00 | 81 | 1013.2 |
| 20260504175202 | 57 | 195 | 0.0 | 0.0 | 0.00 | 0.00 | 0.00 | 81 | 1013.2 |
| 20260504175101 | 57 | 195 | 0.0 | 0.0 | 0.00 | 0.00 | 0.00 | 81 | 1013.2 |
| 20260504175002 | 57 | 195 | 0.0 | 0.0 | 0.00 | 0.00 | 0.00 | 81 | 1013.2 |
| 20260504174901 | 57 | 195 | 0.0 | 0.0 | 0.00 | 0.00 | 0.00 | 81 | 1013.2 |
| 20260504174802 | 57 | 192 | 0.0 | 0.0 | 0.00 | 0.00 | 0.00 | 80 | 1013.2 |
| 20260504174701 | 57 | 192 | 0.0 | 0.0 | 0.00 | 0.00 | 0.00 | 80 | 1013.2 |
| 20260504174602 | 57 | 192 | 0.0 | 0.0 | 0.00 | 0.00 | 0.00 | 80 | 1013.2 |
| 20260504174502 | 57 | 210 | 0.0 | 0.0 | 0.00 | 0.00 | 0.00 | 80 | 1013.2 |
| 20260504174402 | 57 | 210 | 0.0 | 0.0 | 0.00 | 0.00 | 0.00 | 80 | 1013.2 |
| 20260504174302 | 58 | 140 | 0.0 | 0.0 | 0.00 | 0.00 | 0.00 | 80 | 1013.2 |
| 20260504174201 | 58 | 140 | 0.0 | 0.0 | 0.00 | 0.00 | 0.00 | 80 | 1013.2 |
| 20260504174102 | 58 | 140 | 0.0 | 0.0 | 0.00 | 0.00 | 0.00 | 80 | 1013.2 |
| 20260504174001 | 58 | 140 | 0.0 | 0.0 | 0.00 | 0.00 | 0.00 | 80 | 1013.2 |
| 20260504173902 | 58 | 140 | 0.0 | 0.0 | 0.00 | 0.00 | 0.00 | 80 | 1013.2 |
| 20260504173801 | 58 | 140 | 0.0 | 0.0 | 0.00 | 0.00 | 0.00 | 80 | 1013.2 |
| 20260504173702 | 58 | 132 | 0.0 | 0.0 | 0.00 | 0.00 | 0.00 | 79 | 1013.2 |
| 20260504173602 | 58 | 132 | 0.0 | 0.0 | 0.00 | 0.00 | 0.00 | 79 | 1013.2 |
| 20260504173502 | 58 | 210 | 0.0 | 0.0 | 0.00 | 0.00 | 0.00 | 79 | 1013.2 |
| 20260504173402 | 58 | 210 | 0.0 | 0.0 | 0.00 | 0.00 | 0.00 | 79 | 1013.2 |
| 20260504173303 | 58 | 210 | 0.0 | 0.0 | 0.00 | 0.00 | 0.00 | 79 | 1013.2 |
| 20260504173202 | 58 | 250 | 0.0 | 0.0 | 0.00 | 0.00 | 0.00 | 78 | 1013.2 |
| 20260504173102 | 58 | 250 | 0.0 | 0.0 | 0.00 | 0.00 | 0.00 | 78 | 1013.2 |
| 20260504173001 | 58 | 250 | 0.0 | 0.0 | 0.00 | 0.00 | 0.00 | 78 | 1013.2 |
| 20260504172902 | 58 | 250 | 0.0 | 0.0 | 0.00 | 0.00 | 0.00 | 78 | 1013.2 |
| 20260504172801 | 58 | 285 | 0.0 | 0.0 | 0.00 | 0.00 | 0.00 | 79 | 1013.2 |
| 20260504172702 | 58 | 285 | 0.0 | 0.0 | 0.00 | 0.00 | 0.00 | 79 | 1013.2 |
| 20260504172601 | 58 | 285 | 0.0 | 0.0 | 0.00 | 0.00 | 0.00 | 79 | 1013.2 |
| 20260504172502 | 58 | 327 | 0.0 | 0.0 | 0.00 | 0.00 | 0.00 | 78 | 1013.2 |
| 20260504172402 | 58 | 327 | 0.0 | 0.0 | 0.00 | 0.00 | 0.00 | 78 | 1013.2 |
| 20260504172301 | 58 | 327 | 0.0 | 0.0 | 0.00 | 0.00 | 0.00 | 78 | 1013.2 |
| 20260504172202 | 58 | 327 | 0.0 | 0.0 | 0.00 | 0.00 | 0.00 | 78 | 1013.2 |
| 20260504172101 | 58 | 327 | 0.0 | 0.0 | 0.00 | 0.00 | 0.00 | 78 | 1013.2 |
| 20260504172002 | 58 | 332 | 0.0 | 0.0 | 0.00 | 0.00 | 0.00 | 78 | 1013.2 |
| 20260504171902 | 58 | 340 | 0.0 | 0.0 | 0.00 | 0.00 | 0.00 | 79 | 1013.2 |
| 20260504171802 | 58 | 340 | 0.0 | 0.0 | 0.00 | 0.00 | 0.00 | 79 | 1013.2 |
| 20260504171701 | 58 | 340 | 0.0 | 0.0 | 0.00 | 0.00 | 0.00 | 79 | 1013.2 |
| 20260504171602 | 58 | 340 | 0.0 | 0.0 | 0.00 | 0.00 | 0.00 | 79 | 1013.2 |
| 20260504171502 | 58 | 340 | 0.0 | 0.0 | 0.00 | 0.00 | 0.00 | 79 | 1013.2 |
| 20260504171401 | 58 | 0 | 2.6 | 0.0 | 0.00 | 0.00 | 0.00 | 79 | 1013.2 |
| 20260504171302 | 58 | 0 | 2.6 | 0.0 | 0.00 | 0.00 | 0.00 | 79 | 1013.2 |
| 20260504171201 | 58 | 0 | 2.6 | 0.0 | 0.00 | 0.00 | 0.00 | 79 | 1013.2 |
| 20260504171102 | 58 | 12 | 0.0 | 0.0 | 0.00 | 0.00 | 0.00 | 79 | 1013.2 |
| 20260504171001 | 58 | 12 | 0.0 | 0.0 | 0.00 | 0.00 | 0.00 | 79 | 1013.2 |
| 20260504170902 | 58 | 20 | 5.2 | 0.0 | 0.00 | 0.00 | 0.00 | 79 | 1013.2 |
| 20260504170801 | 58 | 20 | 5.2 | 0.0 | 0.00 | 0.00 | 0.00 | 79 | 1013.2 |
| 20260504170702 | 59 | 25 | 5.2 | 0.0 | 0.00 | 0.00 | 0.00 | 78 | 1013.2 |
| 20260504170601 | 59 | 25 | 5.2 | 0.0 | 0.00 | 0.00 | 0.00 | 78 | 1013.2 |
| 20260504170502 | 59 | 25 | 5.2 | 0.0 | 0.00 | 0.00 | 0.00 | 78 | 1013.2 |
| 20260504170402 | 59 | 30 | 7.0 | 0.0 | 0.00 | 0.00 | 0.00 | 77 | 1013.2 |
| 20260504170301 | 59 | 30 | 7.0 | 0.0 | 0.00 | 0.00 | 0.00 | 77 | 1013.2 |
| 20260504170202 | 59 | 30 | 7.0 | 0.0 | 0.00 | 0.00 | 0.00 | 77 | 1013.2 |
| 20260504160402 | 62 | 80 | 3.5 | 0.0 | 0.00 | 0.00 | 0.00 | 68 | 1013.1 |
| 20260504160301 | 62 | 80 | 3.5 | 0.0 | 0.00 | 0.00 | 0.00 | 68 | 1013.1 |
| 20260504160202 | 62 | 80 | 3.5 | 0.0 | 0.00 | 0.00 | 0.00 | 68 | 1013.1 |